Wetterdaten: Donnerstag, 27.05.2021
Datum Zeit Temp. Aussen Temp. o. S. Temp +5cm Feuchte Auss Luftdruck Regen Sonnenschein Regendauer Solar Windben Empfang
27.05.2021 00:00 10,8 C 10,0 C 7,8 C 92 % 1014,2 hPa 0,0 l/m 0 min 0 min 0 W/m 12,9 km/h (3 Bft) 91,30 %
27.05.2021 00:02 10,8 C 10,0 C 7,8 C 92 % 1014,1 hPa 0,0 l/m 0 min 0 min 0 W/m 6,4 km/h (2 Bft) 11,11 %
27.05.2021 00:04 10,8 C 10,0 C 8,4 C 92 % 1014,2 hPa 0,0 l/m 0 min 0 min 0 W/m 6,4 km/h (2 Bft) 88,37 %
27.05.2021 00:08 10,8 C 10,0 C 8,4 C 92 % 1014,2 hPa 0,0 l/m 0 min 0 min 0 W/m 12,9 km/h (3 Bft) 97,87 %
27.05.2021 00:10 10,8 C 10,0 C 8,4 C 92 % 1014,3 hPa 0,0 l/m 0 min 0 min 0 W/m 12,9 km/h (3 Bft) 100,00 %
27.05.2021 00:12 10,8 C 10,0 C 8,4 C 92 % 1014,2 hPa 0,0 l/m 0 min 0 min 0 W/m 22,5 km/h (4 Bft) 97,83 %
27.05.2021 00:14 10,8 C 10,6 C 8,4 C 92 % 1014,2 hPa 0,0 l/m 0 min 2 min 0 W/m 12,9 km/h (3 Bft) 97,87 %
27.05.2021 00:16 10,8 C 10,6 C 8,4 C 92 % 1014,2 hPa 0,0 l/m 0 min 0 min 0 W/m 16,1 km/h (3 Bft) 97,87 %
27.05.2021 00:18 10,8 C 10,6 C 8,4 C 92 % 1014,3 hPa 0,0 l/m 0 min 0 min 0 W/m 12,9 km/h (3 Bft) 97,87 %
27.05.2021 00:20 10,8 C 10,6 C 8,4 C 92 % 1014,2 hPa 0,0 l/m 0 min 0 min 0 W/m 6,4 km/h (2 Bft) 97,87 %
27.05.2021 00:22 10,8 C 10,6 C 8,4 C 92 % 1014,2 hPa 0,0 l/m 0 min 0 min 0 W/m 19,3 km/h (3 Bft) 97,87 %
27.05.2021 00:24 10,9 C 10,6 C 8,4 C 92 % 1014,2 hPa 0,0 l/m 0 min 0 min 0 W/m 16,1 km/h (3 Bft) 95,65 %
27.05.2021 00:26 10,8 C 10,0 C 8,4 C 92 % 1014,3 hPa 0,0 l/m 0 min 0 min 0 W/m 12,9 km/h (3 Bft) 97,87 %
27.05.2021 00:28 10,9 C 10,0 C 8,4 C 92 % 1014,2 hPa 0,0 l/m 0 min 0 min 0 W/m 12,9 km/h (3 Bft) 95,74 %
27.05.2021 00:30 10,8 C 10,0 C 8,4 C 92 % 1014,2 hPa 0,0 l/m 0 min 0 min 0 W/m 16,1 km/h (3 Bft) 100,00 %
27.05.2021 00:32 10,8 C 10,0 C 8,4 C 92 % 1014,2 hPa 0,0 l/m 0 min 0 min 0 W/m 6,4 km/h (2 Bft) 100,00 %
27.05.2021 00:34 10,8 C 10,0 C 8,4 C 92 % 1014,1 hPa 0,0 l/m 0 min 0 min 0 W/m 9,7 km/h (2 Bft) 97,87 %
27.05.2021 00:36 10,8 C 10,0 C 8,4 C 92 % 1014,1 hPa 0,0 l/m 0 min 0 min 0 W/m 9,7 km/h (2 Bft) 97,83 %
27.05.2021 00:38 10,8 C 10,0 C 8,4 C 92 % 1014,2 hPa 0,0 l/m 0 min 0 min 0 W/m 12,9 km/h (3 Bft) 97,87 %
27.05.2021 00:40 10,8 C 10,0 C 8,4 C 92 % 1014,2 hPa 0,0 l/m 0 min 0 min 0 W/m 12,9 km/h (3 Bft) 97,87 %
27.05.2021 00:42 10,8 C 10,0 C 8,4 C 92 % 1014,1 hPa 0,0 l/m 0 min 0 min 0 W/m 16,1 km/h (3 Bft) 97,87 %
27.05.2021 00:44 10,8 C 10,0 C 8,4 C 92 % 1014,2 hPa 0,0 l/m 0 min 0 min 0 W/m 16,1 km/h (3 Bft) 97,87 %
27.05.2021 00:46 10,8 C 10,0 C 8,4 C 92 % 1014,1 hPa 0,0 l/m 0 min 0 min 0 W/m 3,2 km/h (1 Bft) 97,87 %
27.05.2021 00:48 10,8 C 10,0 C 8,4 C 92 % 1014,2 hPa 0,0 l/m 0 min 0 min 0 W/m 16,1 km/h (3 Bft) 97,83 %
27.05.2021 00:50 10,8 C 10,6 C 8,4 C 92 % 1014,1 hPa 0,0 l/m 0 min 0 min 0 W/m 9,7 km/h (2 Bft) 97,87 %
27.05.2021 00:52 10,8 C 10,6 C 8,4 C 92 % 1014,1 hPa 0,0 l/m 0 min 0 min 0 W/m 12,9 km/h (3 Bft) 97,87 %
27.05.2021 00:54 10,8 C 10,6 C 8,4 C 92 % 1014,2 hPa 0,0 l/m 0 min 0 min 0 W/m 6,4 km/h (2 Bft) 97,87 %
27.05.2021 00:56 10,8 C 10,6 C 8,4 C 92 % 1014,2 hPa 0,0 l/m 0 min 0 min 0 W/m 19,3 km/h (3 Bft) 95,74 %
27.05.2021 00:58 10,8 C 10,6 C 8,4 C 92 % 1014,2 hPa 0,0 l/m 0 min 0 min 0 W/m 12,9 km/h (3 Bft) 97,87 %
27.05.2021 01:00 10,9 C 10,6 C 8,4 C 92 % 1014,2 hPa 0,0 l/m 0 min 0 min 0 W/m 6,4 km/h (2 Bft) 97,83 %
27.05.2021 01:02 10,9 C 10,6 C 8,4 C 92 % 1014,2 hPa 0,0 l/m 0 min 0 min 0 W/m 6,4 km/h (2 Bft) 97,87 %
27.05.2021 01:04 10,9 C 10,0 C 8,4 C 92 % 1014,2 hPa 0,0 l/m 0 min 0 min 0 W/m 6,4 km/h (2 Bft) 95,74 %
27.05.2021 01:06 10,9 C 10,0 C 8,4 C 92 % 1014,1 hPa 0,0 l/m 0 min 0 min 0 W/m 9,7 km/h (2 Bft) 97,87 %
27.05.2021 01:08 10,9 C 10,0 C 8,4 C 92 % 1014,2 hPa 0,0 l/m 0 min 0 min 0 W/m 6,4 km/h (2 Bft) 97,87 %
27.05.2021 01:10 10,9 C 10,0 C 8,4 C 92 % 1014,1 hPa 0,0 l/m 0 min 0 min 0 W/m 16,1 km/h (3 Bft) 100,00 %
27.05.2021 01:12 10,8 C 10,0 C 8,4 C 92 % 1014,2 hPa 0,0 l/m 0 min 0 min 0 W/m 16,1 km/h (3 Bft) 100,00 %
27.05.2021 01:14 10,8 C 10,0 C 8,4 C 92 % 1014,2 hPa 0,0 l/m 0 min 0 min 0 W/m 12,9 km/h (3 Bft) 97,87 %
27.05.2021 01:16 10,8 C 10,0 C 8,4 C 92 % 1014,2 hPa 0,0 l/m 0 min 0 min 0 W/m 16,1 km/h (3 Bft) 97,87 %
27.05.2021 01:18 10,8 C 10,0 C 8,4 C 92 % 1014,2 hPa 0,0 l/m 0 min 0 min 0 W/m 12,9 km/h (3 Bft) 97,87 %
27.05.2021 01:20 10,8 C 10,0 C 8,4 C 92 % 1014,3 hPa 0,0 l/m 0 min 0 min 0 W/m 9,7 km/h (2 Bft) 97,87 %
27.05.2021 01:22 10,8 C 10,0 C 8,4 C 92 % 1014,3 hPa 0,0 l/m 0 min 0 min 0 W/m 6,4 km/h (2 Bft) 95,65 %
27.05.2021 01:24 10,8 C 10,0 C 8,4 C 92 % 1014,3 hPa 0,0 l/m 0 min 0 min 0 W/m 6,4 km/h (2 Bft) 95,74 %
27.05.2021 01:26 10,8 C 10,0 C 8,4 C 92 % 1014,3 hPa 0,0 l/m 0 min 0 min 0 W/m 6,4 km/h (2 Bft) 97,87 %
27.05.2021 01:28 10,8 C 10,0 C 8,4 C 92 % 1014,2 hPa 0,0 l/m 0 min 0 min 0 W/m 9,7 km/h (2 Bft) 97,87 %
27.05.2021 01:30 10,8 C 10,0 C 8,4 C 92 % 1014,3 hPa 0,0 l/m 0 min 0 min 0 W/m 16,1 km/h (3 Bft) 97,87 %
27.05.2021 01:32 10,8 C 10,0 C 8,4 C 92 % 1014,3 hPa 0,0 l/m 0 min 0 min 0 W/m 16,1 km/h (3 Bft) 97,87 %
27.05.2021 01:34 10,8 C 10,0 C 8,4 C 92 % 1014,2 hPa 0,0 l/m 0 min 0 min 0 W/m 12,9 km/h (3 Bft) 95,65 %
27.05.2021 01:36 10,8 C 10,0 C 8,4 C 92 % 1014,2 hPa 0,0 l/m 0 min 0 min 0 W/m 12,9 km/h (3 Bft) 95,74 %
27.05.2021 01:38 10,8 C 10,0 C 8,4 C 92 % 1014,2 hPa 0,0 l/m 0 min 0 min 0 W/m 12,9 km/h (3 Bft) 97,87 %
27.05.2021 01:40 10,8 C 10,6 C 8,4 C 92 % 1014,3 hPa 0,0 l/m 0 min 0 min 0 W/m 12,9 km/h (3 Bft) 95,74 %
27.05.2021 01:42 10,8 C 10,6 C 8,4 C 92 % 1014,4 hPa 0,0 l/m 0 min 0 min 0 W/m 12,9 km/h (3 Bft) 97,87 %
27.05.2021 01:44 10,8 C 10,6 C 8,4 C 92 % 1014,4 hPa 0,0 l/m 0 min 0 min 0 W/m 6,4 km/h (2 Bft) 95,74 %
27.05.2021 01:46 10,8 C 10,6 C 8,9 C 92 % 1014,3 hPa 0,0 l/m 0 min 0 min 0 W/m 12,9 km/h (3 Bft) 97,83 %
27.05.2021 01:48 10,8 C 10,6 C 8,9 C 92 % 1014,3 hPa 0,0 l/m 0 min 0 min 0 W/m 6,4 km/h (2 Bft) 95,74 %
27.05.2021 01:50 10,9 C 10,6 C 8,9 C 92 % 1014,4 hPa 0,0 l/m 0 min 0 min 0 W/m 12,9 km/h (3 Bft) 93,62 %
27.05.2021 01:52 10,9 C 10,6 C 8,9 C 92 % 1014,3 hPa 0,0 l/m 0 min 0 min 0 W/m 12,9 km/h (3 Bft) 95,74 %
27.05.2021 01:54 10,9 C 10,6 C 8,9 C 92 % 1014,4 hPa 0,0 l/m 0 min 0 min 0 W/m 12,9 km/h (3 Bft) 97,87 %
27.05.2021 01:56 10,9 C 10,6 C 8,9 C 92 % 1014,4 hPa 0,0 l/m 0 min 0 min 0 W/m 6,4 km/h (2 Bft) 95,74 %
27.05.2021 01:58 10,9 C 10,6 C 8,9 C 92 % 1014,4 hPa 0,0 l/m 0 min 0 min 0 W/m 9,7 km/h (2 Bft) 95,65 %
27.05.2021 02:00 10,9 C 10,6 C 8,9 C 92 % 1014,3 hPa 0,0 l/m 0 min 0 min 0 W/m 12,9 km/h (3 Bft) 95,74 %
27.05.2021 02:02 10,9 C 10,6 C 8,9 C 92 % 1014,4 hPa 0,0 l/m 0 min 0 min 0 W/m 22,5 km/h (4 Bft) 95,74 %
27.05.2021 02:04 10,9 C 10,6 C 8,9 C 91 % 1014,4 hPa 0,0 l/m 0 min 0 min 0 W/m 12,9 km/h (3 Bft) 95,74 %
27.05.2021 02:06 10,9 C 10,6 C 8,9 C 91 % 1014,4 hPa 0,0 l/m 0 min 0 min 0 W/m 6,4 km/h (2 Bft) 95,74 %
27.05.2021 02:08 10,9 C 10,6 C 8,9 C 91 % 1014,4 hPa 0,0 l/m 0 min 0 min 0 W/m 12,9 km/h (3 Bft) 95,74 %
27.05.2021 02:10 10,9 C 10,6 C 8,9 C 91 % 1014,4 hPa 0,0 l/m 0 min 0 min 0 W/m 6,4 km/h (2 Bft) 93,48 %
27.05.2021 02:12 10,9 C 10,6 C 8,9 C 91 % 1014,4 hPa 0,0 l/m 0 min 0 min 0 W/m 6,4 km/h (2 Bft) 95,74 %
27.05.2021 02:14 10,9 C 10,6 C 8,9 C 91 % 1014,3 hPa 0,0 l/m 0 min 0 min 0 W/m 12,9 km/h (3 Bft) 97,87 %
27.05.2021 02:16 10,9 C 10,6 C 8,9 C 91 % 1014,4 hPa 0,0 l/m 0 min 0 min 0 W/m 12,9 km/h (3 Bft) 52,17 %
27.05.2021 02:18 10,9 C 10,6 C 8,9 C 91 % 1014,3 hPa 0,0 l/m 0 min 0 min 0 W/m 19,3 km/h (3 Bft) 95,74 %
27.05.2021 02:20 10,9 C 10,6 C 8,9 C 91 % 1014,3 hPa 0,0 l/m 0 min 0 min 0 W/m 12,9 km/h (3 Bft) 97,87 %
27.05.2021 02:22 10,9 C 10,6 C 8,9 C 91 % 1014,4 hPa 0,0 l/m 0 min 0 min 0 W/m 19,3 km/h (3 Bft) 97,83 %
27.05.2021 02:24 10,9 C 10,6 C 8,9 C 91 % 1014,4 hPa 0,0 l/m 0 min 0 min 0 W/m 12,9 km/h (3 Bft) 97,87 %
27.05.2021 02:26 10,9 C 10,6 C 8,9 C 91 % 1014,4 hPa 0,0 l/m 0 min 0 min 0 W/m 16,1 km/h (3 Bft) 95,74 %
27.05.2021 02:28 10,9 C 10,6 C 8,9 C 91 % 1014,3 hPa 0,0 l/m 0 min 0 min 0 W/m 12,9 km/h (3 Bft) 97,87 %
27.05.2021 02:30 10,9 C 10,6 C 8,9 C 91 % 1014,4 hPa 0,0 l/m 0 min 0 min 0 W/m 19,3 km/h (3 Bft) 97,87 %
27.05.2021 02:32 10,9 C 10,6 C 8,9 C 91 % 1014,4 hPa 0,0 l/m 0 min 0 min 0 W/m 9,7 km/h (2 Bft) 97,87 %
27.05.2021 02:34 10,9 C 10,6 C 8,9 C 91 % 1014,4 hPa 0,0 l/m 0 min 0 min 0 W/m 16,1 km/h (3 Bft) 97,83 %
27.05.2021 02:36 10,9 C 10,6 C 8,9 C 91 % 1014,4 hPa 0,0 l/m 0 min 0 min 0 W/m 9,7 km/h (2 Bft) 97,87 %
27.05.2021 02:38 10,9 C 10,6 C 8,4 C 91 % 1014,5 hPa 0,0 l/m 0 min 0 min 0 W/m 12,9 km/h (3 Bft) 95,74 %
27.05.2021 02:40 10,9 C 10,0 C 8,4 C 91 % 1014,4 hPa 0,0 l/m 0 min 0 min 0 W/m 6,4 km/h (2 Bft) 97,87 %
27.05.2021 02:42 10,9 C 10,0 C 8,4 C 91 % 1014,5 hPa 0,0 l/m 0 min 0 min 0 W/m 12,9 km/h (3 Bft) 97,87 %
27.05.2021 02:44 10,9 C 10,0 C 8,4 C 91 % 1014,4 hPa 0,0 l/m 0 min 0 min 0 W/m 16,1 km/h (3 Bft) 97,87 %
27.05.2021 02:46 10,9 C 10,6 C 8,4 C 91 % 1014,4 hPa 0,0 l/m 0 min 0 min 0 W/m 12,9 km/h (3 Bft) 93,48 %
27.05.2021 02:48 10,9 C 10,6 C 8,4 C 91 % 1014,5 hPa 0,0 l/m 0 min 0 min 0 W/m 12,9 km/h (3 Bft) 100,00 %
27.05.2021 02:50 10,9 C 10,6 C 8,4 C 91 % 1014,5 hPa 0,0 l/m 0 min 0 min 0 W/m 19,3 km/h (3 Bft) 100,00 %
27.05.2021 02:52 10,9 C 10,6 C 8,4 C 91 % 1014,5 hPa 0,0 l/m 0 min 0 min 0 W/m 16,1 km/h (3 Bft) 100,00 %
27.05.2021 02:54 10,9 C 10,6 C 8,4 C 91 % 1014,5 hPa 0,0 l/m 0 min 0 min 0 W/m 16,1 km/h (3 Bft) 97,87 %
27.05.2021 02:56 10,9 C 10,6 C 8,4 C 91 % 1014,5 hPa 0,0 l/m 0 min 0 min 0 W/m 12,9 km/h (3 Bft) 100,00 %
27.05.2021 02:58 10,9 C 10,6 C 8,4 C 91 % 1014,5 hPa 0,0 l/m 0 min 0 min 0 W/m 16,1 km/h (3 Bft) 100,00 %
27.05.2021 03:00 10,9 C 10,6 C 8,9 C 91 % 1014,5 hPa 0,0 l/m 0 min 0 min 0 W/m 12,9 km/h (3 Bft) 100,00 %
27.05.2021 03:02 10,9 C 10,6 C 8,9 C 91 % 1014,6 hPa 0,0 l/m 0 min 0 min 0 W/m 12,9 km/h (3 Bft) 97,87 %
27.05.2021 03:04 10,9 C 10,6 C 8,9 C 91 % 1014,6 hPa 0,0 l/m 0 min 0 min 0 W/m 6,4 km/h (2 Bft) 100,00 %
27.05.2021 03:06 10,9 C 10,6 C 8,9 C 91 % 1014,5 hPa 0,0 l/m 0 min 0 min 0 W/m 16,1 km/h (3 Bft) 100,00 %
27.05.2021 03:08 10,9 C 10,6 C 8,9 C 91 % 1014,5 hPa 0,0 l/m 0 min 0 min 0 W/m 12,9 km/h (3 Bft) 100,00 %
27.05.2021 03:10 10,9 C 10,6 C 8,9 C 91 % 1014,5 hPa 0,0 l/m 0 min 0 min 0 W/m 16,1 km/h (3 Bft) 100,00 %
27.05.2021 03:12 10,9 C 10,0 C 8,9 C 91 % 1014,5 hPa 0,0 l/m 0 min 0 min 0 W/m 12,9 km/h (3 Bft) 100,00 %
27.05.2021 03:14 10,9 C 10,0 C 8,9 C 91 % 1014,5 hPa 0,0 l/m 0 min 0 min 0 W/m 16,1 km/h (3 Bft) 100,00 %
27.05.2021 03:16 10,9 C 10,6 C 8,4 C 91 % 1014,5 hPa 0,0 l/m 0 min 0 min 0 W/m 12,9 km/h (3 Bft) 100,00 %
27.05.2021 03:18 10,9 C 10,0 C 8,4 C 91 % 1014,5 hPa 0,0 l/m 0 min 0 min 0 W/m 12,9 km/h (3 Bft) 100,00 %
27.05.2021 03:20 10,9 C 10,0 C 8,9 C 91 % 1014,5 hPa 0,0 l/m 0 min 0 min 0 W/m 16,1 km/h (3 Bft) 100,00 %
27.05.2021 03:22 10,9 C 10,0 C 8,9 C 91 % 1014,5 hPa 0,0 l/m 0 min 0 min 0 W/m 16,1 km/h (3 Bft) 100,00 %
27.05.2021 03:24 10,9 C 10,0 C 8,9 C 91 % 1014,5 hPa 0,0 l/m 0 min 0 min 0 W/m 12,9 km/h (3 Bft) 100,00 %
27.05.2021 03:26 10,9 C 10,0 C 8,9 C 91 % 1014,6 hPa 0,0 l/m 0 min 0 min 0 W/m 9,7 km/h (2 Bft) 100,00 %
27.05.2021 03:28 10,9 C 10,6 C 8,9 C 91 % 1014,6 hPa 0,0 l/m 0 min 0 min 0 W/m 6,4 km/h (2 Bft) 100,00 %
27.05.2021 03:30 10,9 C 10,0 C 8,9 C 91 % 1014,6 hPa 0,0 l/m 0 min 0 min 0 W/m 16,1 km/h (3 Bft) 100,00 %
27.05.2021 03:32 10,8 C 10,0 C 8,9 C 91 % 1014,6 hPa 0,0 l/m 0 min 0 min 0 W/m 12,9 km/h (3 Bft) 100,00 %
27.05.2021 03:34 10,9 C 10,0 C 8,9 C 91 % 1014,5 hPa 0,0 l/m 0 min 0 min 0 W/m 16,1 km/h (3 Bft) 100,00 %
27.05.2021 03:36 10,9 C 10,0 C 8,4 C 91 % 1014,6 hPa 0,0 l/m 0 min 0 min 0 W/m 9,7 km/h (2 Bft) 100,00 %
27.05.2021 03:38 10,9 C 10,0 C 8,4 C 91 % 1014,5 hPa 0,0 l/m 0 min 0 min 0 W/m 12,9 km/h (3 Bft) 100,00 %
27.05.2021 03:40 10,8 C 10,6 C 8,9 C 91 % 1014,6 hPa 0,0 l/m 0 min 0 min 0 W/m 12,9 km/h (3 Bft) 100,00 %
27.05.2021 03:42 10,8 C 10,6 C 8,9 C 91 % 1014,6 hPa 0,0 l/m 0 min 0 min 0 W/m 16,1 km/h (3 Bft) 100,00 %
27.05.2021 03:44 10,9 C 10,6 C 8,4 C 91 % 1014,6 hPa 0,0 l/m 0 min 0 min 0 W/m 16,1 km/h (3 Bft) 100,00 %
27.05.2021 03:46 10,9 C 10,0 C 8,9 C 91 % 1014,6 hPa 0,0 l/m 0 min 0 min 0 W/m 16,1 km/h (3 Bft) 100,00 %
27.05.2021 03:48 10,9 C 10,6 C 8,9 C 91 % 1014,5 hPa 0,0 l/m 0 min 0 min 0 W/m 19,3 km/h (3 Bft) 100,00 %
27.05.2021 03:50 10,9 C 10,6 C 8,9 C 91 % 1014,6 hPa 0,0 l/m 0 min 0 min 0 W/m 12,9 km/h (3 Bft) 100,00 %
27.05.2021 03:52 10,9 C 10,6 C 8,9 C 91 % 1014,5 hPa 0,0 l/m 0 min 0 min 0 W/m 16,1 km/h (3 Bft) 100,00 %
27.05.2021 03:54 10,9 C 10,6 C 8,9 C 91 % 1014,6 hPa 0,0 l/m 0 min 0 min 0 W/m 6,4 km/h (2 Bft) 100,00 %
27.05.2021 03:56 10,9 C 10,6 C 8,9 C 91 % 1014,6 hPa 0,0 l/m 0 min 0 min 0 W/m 9,7 km/h (2 Bft) 100,00 %
27.05.2021 03:58 10,9 C 10,6 C 8,9 C 91 % 1014,6 hPa 0,0 l/m 0 min 0 min 0 W/m 12,9 km/h (3 Bft) 100,00 %
27.05.2021 04:00 10,9 C 10,6 C 8,9 C 91 % 1014,5 hPa 0,0 l/m 0 min 0 min 0 W/m 12,9 km/h (3 Bft) 100,00 %
27.05.2021 04:02 10,9 C 10,6 C 8,9 C 91 % 1014,6 hPa 0,0 l/m 0 min 0 min 0 W/m 19,3 km/h (3 Bft) 100,00 %
27.05.2021 04:04 10,9 C 10,6 C 8,9 C 91 % 1014,6 hPa 0,0 l/m 0 min 0 min 0 W/m 16,1 km/h (3 Bft) 95,74 %
27.05.2021 04:06 10,9 C 10,6 C 8,9 C 91 % 1014,6 hPa 0,0 l/m 0 min 0 min 0 W/m 9,7 km/h (2 Bft) 100,00 %
27.05.2021 04:08 10,9 C 10,6 C 8,9 C 91 % 1014,6 hPa 0,0 l/m 0 min 0 min 0 W/m 12,9 km/h (3 Bft) 100,00 %
27.05.2021 04:10 10,9 C 10,6 C 8,9 C 91 % 1014,5 hPa 0,0 l/m 0 min 0 min 0 W/m 9,7 km/h (2 Bft) 100,00 %
27.05.2021 04:12 10,9 C 10,6 C 8,9 C 91 % 1014,6 hPa 0,0 l/m 0 min 0 min 0 W/m 12,9 km/h (3 Bft) 100,00 %
27.05.2021 04:14 10,9 C 10,6 C 8,9 C 91 % 1014,6 hPa 0,0 l/m 0 min 0 min 0 W/m 6,4 km/h (2 Bft) 100,00 %
27.05.2021 04:16 10,9 C 10,6 C 8,9 C 91 % 1014,7 hPa 0,0 l/m 0 min 0 min 0 W/m 19,3 km/h (3 Bft) 100,00 %
27.05.2021 04:18 10,9 C 10,6 C 8,9 C 91 % 1014,7 hPa 0,0 l/m 0 min 0 min 0 W/m 16,1 km/h (3 Bft) 100,00 %
27.05.2021 04:20 10,9 C 10,6 C 8,9 C 91 % 1014,7 hPa 0,0 l/m 0 min 0 min 0 W/m 25,7 km/h (4 Bft) 97,83 %
27.05.2021 04:22 10,9 C 10,6 C 8,9 C 91 % 1014,6 hPa 0,0 l/m 0 min 0 min 0 W/m 25,7 km/h (4 Bft) 95,74 %
27.05.2021 04:24 10,9 C 10,6 C 8,9 C 91 % 1014,6 hPa 0,0 l/m 0 min 0 min 0 W/m 12,9 km/h (3 Bft) 97,87 %
27.05.2021 04:26 10,9 C 10,6 C 8,9 C 91 % 1014,6 hPa 0,0 l/m 0 min 0 min 0 W/m 25,7 km/h (4 Bft) 97,87 %
27.05.2021 04:28 10,9 C 10,6 C 8,9 C 91 % 1014,6 hPa 0,0 l/m 0 min 0 min 0 W/m 25,7 km/h (4 Bft) 95,74 %
27.05.2021 04:30 10,9 C 10,6 C 8,9 C 91 % 1014,6 hPa 0,0 l/m 0 min 0 min 0 W/m 12,9 km/h (3 Bft) 97,87 %
27.05.2021 04:32 10,9 C 10,6 C 8,9 C 91 % 1014,7 hPa 0,0 l/m 0 min 0 min 0 W/m 16,1 km/h (3 Bft) 97,83 %
27.05.2021 04:34 10,9 C 10,6 C 8,9 C 91 % 1014,7 hPa 0,0 l/m 0 min 0 min 0 W/m 16,1 km/h (3 Bft) 95,74 %
27.05.2021 04:36 10,9 C 10,6 C 8,9 C 91 % 1014,7 hPa 0,0 l/m 0 min 0 min 0 W/m 6,4 km/h (2 Bft) 97,87 %
27.05.2021 04:38 10,9 C 10,6 C 8,9 C 90 % 1014,8 hPa 0,0 l/m 0 min 0 min 0 W/m 12,9 km/h (3 Bft) 97,56 %
27.05.2021 04:40 10,9 C 10,6 C 8,9 C 91 % 1014,8 hPa 0,0 l/m 0 min 0 min 0 W/m 12,9 km/h (3 Bft) 97,87 %
27.05.2021 04:42 10,9 C 10,6 C 8,9 C 91 % 1014,8 hPa 0,0 l/m 0 min 0 min 0 W/m 16,1 km/h (3 Bft) 97,87 %
27.05.2021 04:44 10,9 C 10,6 C 8,9 C 91 % 1014,8 hPa 0,0 l/m 0 min 0 min 0 W/m 19,3 km/h (3 Bft) 91,49 %
27.05.2021 04:46 10,9 C 10,6 C 8,9 C 90 % 1014,7 hPa 0,0 l/m 0 min 0 min 0 W/m 25,7 km/h (4 Bft) 97,87 %
27.05.2021 04:48 10,9 C 10,6 C 8,9 C 90 % 1014,7 hPa 0,0 l/m 0 min 0 min 0 W/m 19,3 km/h (3 Bft) 91,30 %
27.05.2021 04:50 10,9 C 10,6 C 8,9 C 90 % 1014,8 hPa 0,0 l/m 0 min 0 min 0 W/m 19,3 km/h (3 Bft) 95,74 %
27.05.2021 04:52 10,9 C 10,6 C 8,9 C 90 % 1014,8 hPa 0,0 l/m 0 min 0 min 0 W/m 19,3 km/h (3 Bft) 93,62 %
27.05.2021 04:54 10,9 C 10,6 C 8,9 C 90 % 1014,8 hPa 0,0 l/m 0 min 0 min 0 W/m 12,9 km/h (3 Bft) 93,62 %
27.05.2021 04:56 10,9 C 10,6 C 8,9 C 90 % 1014,8 hPa 0,0 l/m 0 min 0 min 0 W/m 12,9 km/h (3 Bft) 93,62 %
27.05.2021 04:58 10,9 C 10,0 C 8,9 C 91 % 1014,8 hPa 0,0 l/m 0 min 0 min 0 W/m 9,7 km/h (2 Bft) 93,62 %
27.05.2021 05:00 10,9 C 10,0 C 8,9 C 91 % 1014,9 hPa 0,0 l/m 0 min 0 min 0 W/m 12,9 km/h (3 Bft) 95,65 %
27.05.2021 05:02 10,9 C 10,0 C 8,9 C 91 % 1014,8 hPa 0,0 l/m 0 min 0 min 0 W/m 22,5 km/h (4 Bft) 91,49 %
27.05.2021 05:04 10,9 C 10,0 C 8,9 C 91 % 1014,8 hPa 0,0 l/m 0 min 0 min 0 W/m 22,5 km/h (4 Bft) 91,49 %
27.05.2021 05:06 10,9 C 10,0 C 8,9 C 91 % 1014,8 hPa 0,0 l/m 0 min 0 min 0 W/m 9,7 km/h (2 Bft) 91,49 %
27.05.2021 05:08 10,9 C 10,0 C 8,9 C 91 % 1014,9 hPa 0,0 l/m 0 min 0 min 0 W/m 16,1 km/h (3 Bft) 97,87 %
27.05.2021 05:10 10,9 C 10,0 C 8,9 C 91 % 1014,8 hPa 0,0 l/m 0 min 0 min 0 W/m 9,7 km/h (2 Bft) 95,74 %
27.05.2021 05:12 10,9 C 10,0 C 8,9 C 91 % 1014,9 hPa 0,0 l/m 0 min 0 min 0 W/m 16,1 km/h (3 Bft) 95,65 %
27.05.2021 05:14 10,9 C 10,0 C 8,9 C 91 % 1014,8 hPa 0,0 l/m 0 min 0 min 0 W/m 19,3 km/h (3 Bft) 95,74 %
27.05.2021 05:16 10,9 C 10,0 C 8,4 C 91 % 1014,9 hPa 0,0 l/m 0 min 0 min 0 W/m 12,9 km/h (3 Bft) 95,74 %
27.05.2021 05:18 10,9 C 10,0 C 8,4 C 91 % 1014,9 hPa 0,0 l/m 0 min 0 min 0 W/m 16,1 km/h (3 Bft) 95,74 %
27.05.2021 05:20 10,9 C 10,0 C 8,4 C 91 % 1015,0 hPa 0,0 l/m 0 min 0 min 0 W/m 25,7 km/h (4 Bft) 95,74 %
27.05.2021 05:22 10,8 C 10,0 C 8,4 C 91 % 1014,9 hPa 0,0 l/m 0 min 0 min 0 W/m 9,7 km/h (2 Bft) 95,65 %
27.05.2021 05:24 10,8 C 10,0 C 8,4 C 91 % 1014,9 hPa 0,0 l/m 0 min 0 min 0 W/m 12,9 km/h (3 Bft) 91,49 %
27.05.2021 05:26 10,8 C 10,0 C 8,4 C 91 % 1014,9 hPa 0,0 l/m 0 min 0 min 0 W/m 12,9 km/h (3 Bft) 95,74 %
27.05.2021 05:28 10,8 C 10,0 C 8,4 C 91 % 1015,0 hPa 0,0 l/m 0 min 0 min 0 W/m 16,1 km/h (3 Bft) 95,74 %
27.05.2021 05:30 10,8 C 10,0 C 8,4 C 91 % 1014,9 hPa 0,0 l/m 0 min 0 min 0 W/m 9,7 km/h (2 Bft) 95,74 %
27.05.2021 05:32 10,8 C 10,0 C 8,4 C 91 % 1015,0 hPa 0,0 l/m 0 min 0 min 0 W/m 9,7 km/h (2 Bft) 95,74 %
27.05.2021 05:34 10,8 C 10,0 C 8,4 C 91 % 1015,0 hPa 0,0 l/m 0 min 0 min 0 W/m 19,3 km/h (3 Bft) 95,65 %
27.05.2021 05:36 10,8 C 10,0 C 8,4 C 91 % 1015,0 hPa 0,0 l/m 0 min 0 min 0 W/m 9,7 km/h (2 Bft) 97,87 %
27.05.2021 05:38 10,8 C 10,0 C 8,4 C 91 % 1015,0 hPa 0,0 l/m 0 min 0 min 0 W/m 9,7 km/h (2 Bft) 97,87 %
27.05.2021 05:40 10,8 C 10,0 C 8,4 C 91 % 1015,0 hPa 0,0 l/m 0 min 0 min 0 W/m 9,7 km/h (2 Bft) 95,74 %
27.05.2021 05:42 10,8 C 10,0 C 8,4 C 91 % 1014,9 hPa 0,0 l/m 0 min 0 min 0 W/m 9,7 km/h (2 Bft) 97,87 %
27.05.2021 05:44 10,8 C 10,0 C 8,4 C 91 % 1015,0 hPa 0,0 l/m 0 min 0 min 0 W/m 12,9 km/h (3 Bft) 97,87 %
27.05.2021 05:46 10,7 C 10,0 C 8,4 C 91 % 1015,0 hPa 0,0 l/m 0 min 0 min 0 W/m 16,1 km/h (3 Bft) 95,65 %
27.05.2021 05:48 10,7 C 10,0 C 8,4 C 91 % 1015,0 hPa 0,0 l/m 0 min 0 min 0 W/m 6,4 km/h (2 Bft) 97,87 %
27.05.2021 05:50 10,7 C 10,0 C 8,4 C 91 % 1015,1 hPa 0,0 l/m 0 min 0 min 0 W/m 6,4 km/h (2 Bft) 97,87 %
27.05.2021 05:52 10,7 C 10,0 C 8,4 C 91 % 1015,1 hPa 0,0 l/m 0 min 0 min 0 W/m 12,9 km/h (3 Bft) 97,87 %
27.05.2021 05:54 10,7 C 10,0 C 8,4 C 91 % 1015,1 hPa 0,0 l/m 0 min 0 min 0 W/m 12,9 km/h (3 Bft) 97,87 %
27.05.2021 05:56 10,7 C 10,0 C 8,4 C 91 % 1015,1 hPa 0,0 l/m 0 min 0 min 0 W/m 9,7 km/h (2 Bft) 95,74 %
27.05.2021 05:58 10,7 C 10,0 C 8,4 C 91 % 1015,1 hPa 0,0 l/m 0 min 0 min 0 W/m 12,9 km/h (3 Bft) 97,83 %
27.05.2021 06:00 10,7 C 10,0 C 8,4 C 91 % 1015,1 hPa 0,0 l/m 0 min 0 min 1 W/m 9,7 km/h (2 Bft) 97,87 %
27.05.2021 06:02 10,6 C 10,0 C 8,4 C 91 % 1015,1 hPa 0,0 l/m 0 min 0 min 7 W/m 16,1 km/h (3 Bft) 95,74 %
27.05.2021 06:04 10,6 C 10,0 C 8,4 C 91 % 1015,1 hPa 0,0 l/m 0 min 0 min 9 W/m 6,4 km/h (2 Bft) 97,87 %
27.05.2021 06:08 10,6 C 10,0 C 8,4 C 91 % 1015,2 hPa 0,0 l/m 0 min 0 min 7 W/m 22,5 km/h (4 Bft) 97,94 %
27.05.2021 06:10 10,6 C 10,0 C 8,4 C 91 % 1015,2 hPa 0,0 l/m 0 min 0 min 6 W/m 16,1 km/h (3 Bft) 95,65 %
27.05.2021 06:12 10,6 C 10,0 C 8,4 C 91 % 1015,1 hPa 0,0 l/m 0 min 0 min 5 W/m 16,1 km/h (3 Bft) 97,87 %
27.05.2021 06:14 10,6 C 10,0 C 8,4 C 90 % 1015,2 hPa 0,0 l/m 0 min 0 min 5 W/m 9,7 km/h (2 Bft) 97,87 %
27.05.2021 06:16 10,6 C 10,0 C 8,4 C 90 % 1015,3 hPa 0,0 l/m 0 min 0 min 5 W/m 12,9 km/h (3 Bft) 97,87 %
27.05.2021 06:18 10,5 C 10,0 C 8,4 C 90 % 1015,2 hPa 0,0 l/m 0 min 0 min 6 W/m 22,5 km/h (4 Bft) 97,87 %
27.05.2021 06:20 10,5 C 10,0 C 8,4 C 90 % 1015,2 hPa 0,0 l/m 0 min 0 min 7 W/m 19,3 km/h (3 Bft) 100,00 %
27.05.2021 06:22 10,5 C 10,0 C 8,4 C 89 % 1015,2 hPa 0,0 l/m 0 min 0 min 8 W/m 19,3 km/h (3 Bft) 100,00 %
27.05.2021 06:24 10,5 C 10,0 C 8,4 C 89 % 1015,1 hPa 0,0 l/m 0 min 0 min 8 W/m 19,3 km/h (3 Bft) 95,74 %
27.05.2021 06:26 10,5 C 10,0 C 8,4 C 89 % 1015,2 hPa 0,0 l/m 0 min 0 min 7 W/m 22,5 km/h (4 Bft) 100,00 %
27.05.2021 06:28 10,5 C 10,0 C 8,4 C 89 % 1015,3 hPa 0,0 l/m 0 min 0 min 9 W/m 12,9 km/h (3 Bft) 100,00 %
27.05.2021 06:30 10,5 C 10,0 C 8,4 C 89 % 1015,2 hPa 0,0 l/m 0 min 0 min 11 W/m 12,9 km/h (3 Bft) 100,00 %
27.05.2021 06:32 10,5 C 10,0 C 8,4 C 89 % 1015,3 hPa 0,0 l/m 0 min 0 min 9 W/m 9,7 km/h (2 Bft) 100,00 %
27.05.2021 06:34 10,5 C 10,0 C 8,4 C 89 % 1015,3 hPa 0,0 l/m 0 min 0 min 10 W/m 16,1 km/h (3 Bft) 97,83 %
27.05.2021 06:36 10,5 C 10,0 C 8,4 C 89 % 1015,3 hPa 0,0 l/m 0 min 0 min 12 W/m 19,3 km/h (3 Bft) 97,87 %
27.05.2021 06:38 10,5 C 10,0 C 8,4 C 89 % 1015,3 hPa 0,0 l/m 0 min 0 min 17 W/m 19,3 km/h (3 Bft) 95,74 %
27.05.2021 06:40 10,5 C 10,0 C 8,4 C 88 % 1015,3 hPa 0,0 l/m 0 min 0 min 19 W/m 25,7 km/h (4 Bft) 95,74 %
27.05.2021 06:42 10,5 C 10,0 C 8,4 C 88 % 1015,3 hPa 0,0 l/m 0 min 0 min 21 W/m 16,1 km/h (3 Bft) 100,00 %
27.05.2021 06:44 10,5 C 10,0 C 8,4 C 88 % 1015,4 hPa 0,0 l/m 0 min 0 min 26 W/m 19,3 km/h (3 Bft) 95,74 %
27.05.2021 06:46 10,5 C 10,0 C 8,4 C 88 % 1015,4 hPa 0,0 l/m 0 min 0 min 25 W/m 19,3 km/h (3 Bft) 100,00 %
27.05.2021 06:48 10,5 C 10,0 C 8,4 C 88 % 1015,4 hPa 0,0 l/m 0 min 0 min 27 W/m 22,5 km/h (4 Bft) 100,00 %
27.05.2021 06:50 10,5 C 10,0 C 8,4 C 88 % 1015,4 hPa 0,0 l/m 0 min 0 min 26 W/m 16,1 km/h (3 Bft) 100,00 %
27.05.2021 06:52 10,5 C 10,0 C 7,8 C 89 % 1015,5 hPa 0,0 l/m 0 min 0 min 19 W/m 25,7 km/h (4 Bft) 100,00 %
27.05.2021 06:54 10,5 C 10,0 C 7,8 C 89 % 1015,5 hPa 0,0 l/m 0 min 2 min 15 W/m 19,3 km/h (3 Bft) 97,87 %
27.05.2021 06:56 10,5 C 10,0 C 7,8 C 89 % 1015,5 hPa 0,0 l/m 0 min 2 min 13 W/m 16,1 km/h (3 Bft) 97,83 %
27.05.2021 06:58 10,4 C 9,4 C 7,8 C 89 % 1015,5 hPa 0,0 l/m 0 min 2 min 16 W/m 16,1 km/h (3 Bft) 100,00 %
27.05.2021 07:00 10,4 C 9,4 C 7,8 C 90 % 1015,6 hPa 0,0 l/m 0 min 2 min 15 W/m 16,1 km/h (3 Bft) 100,00 %
27.05.2021 07:02 10,4 C 9,4 C 7,8 C 90 % 1015,5 hPa 0,0 l/m 0 min 2 min 16 W/m 12,9 km/h (3 Bft) 97,87 %
27.05.2021 07:04 10,4 C 9,4 C 7,8 C 90 % 1015,6 hPa 0,0 l/m 0 min 2 min 19 W/m 19,3 km/h (3 Bft) 100,00 %
27.05.2021 07:06 10,3 C 9,4 C 7,8 C 90 % 1015,6 hPa 0,0 l/m 0 min 2 min 24 W/m 19,3 km/h (3 Bft) 100,00 %
27.05.2021 07:08 10,3 C 9,4 C 7,3 C 91 % 1015,6 hPa 0,0 l/m 0 min 2 min 21 W/m 16,1 km/h (3 Bft) 95,65 %
27.05.2021 07:10 10,3 C 9,4 C 7,3 C 91 % 1015,7 hPa 0,0 l/m 0 min 2 min 19 W/m 9,7 km/h (2 Bft) 100,00 %
27.05.2021 07:12 10,3 C 9,4 C 7,3 C 91 % 1015,6 hPa 0,2 l/m 0 min 2 min 21 W/m 22,5 km/h (4 Bft) 97,87 %
27.05.2021 07:14 10,2 C 9,4 C 7,3 C 91 % 1015,7 hPa 0,0 l/m 0 min 2 min 22 W/m 16,1 km/h (3 Bft) 95,74 %
27.05.2021 07:16 10,1 C 9,4 C 7,3 C 91 % 1015,6 hPa 0,0 l/m 0 min 2 min 20 W/m 12,9 km/h (3 Bft) 97,87 %
27.05.2021 07:18 10,1 C 9,4 C 7,3 C 91 % 1015,7 hPa 0,0 l/m 0 min 2 min 19 W/m 12,9 km/h (3 Bft) 97,87 %
27.05.2021 07:20 10,1 C 9,4 C 7,3 C 92 % 1015,7 hPa 0,0 l/m 0 min 2 min 22 W/m 6,4 km/h (2 Bft) 93,48 %
27.05.2021 07:22 10,1 C 9,4 C 7,3 C 92 % 1015,6 hPa 0,0 l/m 0 min 2 min 23 W/m 12,9 km/h (3 Bft) 93,88 %
27.05.2021 07:24 10,1 C 9,4 C 7,3 C 92 % 1015,7 hPa 0,0 l/m 0 min 2 min 22 W/m 12,9 km/h (3 Bft) 97,87 %
27.05.2021 07:26 10,1 C 9,4 C 7,3 C 92 % 1015,7 hPa 0,0 l/m 0 min 2 min 26 W/m 12,9 km/h (3 Bft) 95,74 %
27.05.2021 07:28 10,0 C 9,4 C 7,3 C 92 % 1015,8 hPa 0,0 l/m 0 min 2 min 29 W/m 19,3 km/h (3 Bft) 95,65 %
27.05.2021 07:30 10,0 C 9,4 C 7,3 C 92 % 1015,7 hPa 0,0 l/m 0 min 2 min 30 W/m 12,9 km/h (3 Bft) 93,02 %
27.05.2021 07:32 10,0 C 9,4 C 7,3 C 92 % 1015,8 hPa 0,0 l/m 0 min 2 min 32 W/m 16,1 km/h (3 Bft) 97,83 %
27.05.2021 07:34 10,0 C 9,4 C 7,3 C 92 % 1015,8 hPa 0,2 l/m 0 min 2 min 33 W/m 16,1 km/h (3 Bft) 93,62 %
27.05.2021 07:36 10,0 C 9,4 C 7,3 C 93 % 1015,8 hPa 0,0 l/m 0 min 2 min 33 W/m 22,5 km/h (4 Bft) 95,74 %
27.05.2021 07:38 9,9 C 9,4 C 7,3 C 93 % 1015,8 hPa 0,0 l/m 0 min 2 min 31 W/m 16,1 km/h (3 Bft) 96,08 %
27.05.2021 07:40 9,9 C 9,4 C 7,3 C 93 % 1015,8 hPa 0,0 l/m 0 min 2 min 28 W/m 12,9 km/h (3 Bft) 93,62 %
27.05.2021 07:42 9,9 C 9,4 C 7,3 C 93 % 1015,8 hPa 0,0 l/m 0 min 2 min 31 W/m 12,9 km/h (3 Bft) 95,74 %
27.05.2021 07:44 9,9 C 9,4 C 7,3 C 93 % 1015,9 hPa 0,0 l/m 0 min 2 min 35 W/m 9,7 km/h (2 Bft) 95,65 %
27.05.2021 07:46 9,9 C 9,4 C 7,3 C 93 % 1015,8 hPa 0,0 l/m 0 min 2 min 36 W/m 12,9 km/h (3 Bft) 95,74 %
27.05.2021 07:48 9,9 C 9,4 C 7,3 C 93 % 1015,8 hPa 0,0 l/m 0 min 2 min 35 W/m 9,7 km/h (2 Bft) 93,75 %
27.05.2021 07:50 9,9 C 9,4 C 7,3 C 93 % 1015,9 hPa 0,0 l/m 0 min 2 min 34 W/m 9,7 km/h (2 Bft) 97,14 %
27.05.2021 07:52 9,8 C 9,4 C 7,3 C 93 % 1015,9 hPa 0,0 l/m 0 min 2 min 38 W/m 6,4 km/h (2 Bft) 94,34 %
27.05.2021 07:54 9,8 C 9,4 C 7,3 C 94 % 1016,0 hPa 0,0 l/m 0 min 2 min 36 W/m 12,9 km/h (3 Bft) 95,74 %
27.05.2021 07:56 9,8 C 9,4 C 7,3 C 94 % 1016,0 hPa 0,0 l/m 0 min 2 min 36 W/m 9,7 km/h (2 Bft) 93,48 %
27.05.2021 07:58 9,8 C 9,4 C 7,3 C 94 % 1015,9 hPa 0,0 l/m 0 min 2 min 36 W/m 12,9 km/h (3 Bft) 95,74 %
27.05.2021 08:00 9,8 C 9,4 C 7,3 C 94 % 1016,0 hPa 0,0 l/m 0 min 2 min 39 W/m 12,9 km/h (3 Bft) 93,62 %
27.05.2021 08:02 9,8 C 9,4 C 7,3 C 94 % 1016,0 hPa 0,2 l/m 0 min 2 min 44 W/m 12,9 km/h (3 Bft) 93,62 %
27.05.2021 08:04 9,8 C 9,4 C 7,3 C 94 % 1016,0 hPa 0,0 l/m 0 min 2 min 53 W/m 6,4 km/h (2 Bft) 95,74 %
27.05.2021 08:06 9,7 C 9,4 C 7,3 C 94 % 1016,1 hPa 0,0 l/m 0 min 2 min 57 W/m 16,1 km/h (3 Bft) 97,87 %
27.05.2021 08:08 9,7 C 9,4 C 7,3 C 94 % 1016,1 hPa 0,0 l/m 0 min 2 min 50 W/m 16,1 km/h (3 Bft) 97,83 %
27.05.2021 08:10 9,7 C 9,4 C 7,3 C 94 % 1016,2 hPa 0,0 l/m 0 min 2 min 48 W/m 16,1 km/h (3 Bft) 97,87 %
27.05.2021 08:12 9,7 C 9,4 C 7,3 C 94 % 1016,1 hPa 0,0 l/m 0 min 2 min 52 W/m 9,7 km/h (2 Bft) 97,87 %
27.05.2021 08:14 9,6 C 9,4 C 7,3 C 94 % 1016,1 hPa 0,0 l/m 0 min 2 min 56 W/m 12,9 km/h (3 Bft) 95,74 %
27.05.2021 08:16 9,7 C 9,4 C 7,3 C 94 % 1016,1 hPa 0,0 l/m 0 min 2 min 52 W/m 6,4 km/h (2 Bft) 97,87 %
27.05.2021 08:18 9,6 C 9,4 C 7,3 C 94 % 1016,1 hPa 0,0 l/m 0 min 2 min 56 W/m 12,9 km/h (3 Bft) 93,62 %
27.05.2021 08:20 9,6 C 9,4 C 7,3 C 95 % 1016,2 hPa 0,2 l/m 0 min 2 min 58 W/m 12,9 km/h (3 Bft) 100,00 %
27.05.2021 08:22 9,7 C 9,4 C 7,3 C 95 % 1016,2 hPa 0,0 l/m 0 min 2 min 58 W/m 6,4 km/h (2 Bft) 95,74 %
27.05.2021 08:24 9,7 C 9,4 C 7,3 C 95 % 1016,2 hPa 0,0 l/m 0 min 2 min 59 W/m 6,4 km/h (2 Bft) 100,00 %
27.05.2021 08:26 9,7 C 9,4 C 7,3 C 95 % 1016,1 hPa 0,0 l/m 0 min 2 min 59 W/m 16,1 km/h (3 Bft) 100,00 %
27.05.2021 08:28 9,7 C 9,4 C 7,3 C 95 % 1016,2 hPa 0,0 l/m 0 min 2 min 62 W/m 9,7 km/h (2 Bft) 100,00 %
27.05.2021 08:30 9,7 C 9,4 C 7,3 C 95 % 1016,1 hPa 0,0 l/m 0 min 2 min 63 W/m 12,9 km/h (3 Bft) 100,00 %
27.05.2021 08:32 9,7 C 9,4 C 7,3 C 95 % 1016,1 hPa 0,0 l/m 0 min 2 min 79 W/m 3,2 km/h (1 Bft) 100,00 %
27.05.2021 08:34 9,8 C 9,4 C 7,3 C 95 % 1016,1 hPa 0,0 l/m 0 min 0 min 91 W/m 6,4 km/h (2 Bft) 100,00 %
27.05.2021 08:36 9,8 C 9,4 C 7,3 C 95 % 1016,1 hPa 0,0 l/m 0 min 2 min 95 W/m 6,4 km/h (2 Bft) 100,00 %
27.05.2021 08:38 9,8 C 9,4 C 7,3 C 95 % 1016,2 hPa 0,0 l/m 0 min 2 min 93 W/m 9,7 km/h (2 Bft) 97,87 %
27.05.2021 08:40 9,8 C 9,4 C 7,3 C 95 % 1016,2 hPa 0,0 l/m 0 min 2 min 87 W/m 6,4 km/h (2 Bft) 100,00 %
27.05.2021 08:42 9,8 C 9,4 C 7,3 C 95 % 1016,3 hPa 0,0 l/m 0 min 0 min 81 W/m 6,4 km/h (2 Bft) 100,00 %
27.05.2021 08:44 9,8 C 9,4 C 7,8 C 95 % 1016,3 hPa 0,0 l/m 0 min 2 min 89 W/m 12,9 km/h (3 Bft) 100,00 %
27.05.2021 08:46 9,9 C 9,4 C 7,3 C 95 % 1016,3 hPa 0,0 l/m 0 min 2 min 86 W/m 12,9 km/h (3 Bft) 97,87 %
27.05.2021 08:48 9,9 C 9,4 C 7,8 C 95 % 1016,2 hPa 0,0 l/m 0 min 2 min 94 W/m 3,2 km/h (1 Bft) 100,00 %
27.05.2021 08:50 9,9 C 9,4 C 7,8 C 95 % 1016,3 hPa 0,0 l/m 0 min 2 min 106 W/m 16,1 km/h (3 Bft) 97,87 %
27.05.2021 08:52 9,9 C 9,4 C 7,8 C 95 % 1016,3 hPa 0,0 l/m 0 min 2 min 111 W/m 12,9 km/h (3 Bft) 100,00 %
27.05.2021 08:54 9,9 C 9,4 C 7,8 C 95 % 1016,3 hPa 0,0 l/m 0 min 2 min 109 W/m 6,4 km/h (2 Bft) 100,00 %
27.05.2021 08:56 9,9 C 10,0 C 7,8 C 95 % 1016,3 hPa 0,0 l/m 0 min 2 min 106 W/m 9,7 km/h (2 Bft) 100,00 %
27.05.2021 08:58 9,9 C 10,0 C 7,8 C 95 % 1016,3 hPa 0,0 l/m 0 min 2 min 111 W/m 12,9 km/h (3 Bft) 100,00 %
27.05.2021 09:00 10,0 C 9,4 C 7,8 C 95 % 1016,4 hPa 0,0 l/m 0 min 2 min 113 W/m 12,9 km/h (3 Bft) 100,00 %
27.05.2021 09:02 10,0 C 9,4 C 7,8 C 95 % 1016,3 hPa 0,0 l/m 0 min 2 min 114 W/m 12,9 km/h (3 Bft) 100,00 %
27.05.2021 09:04 10,0 C 9,4 C 7,8 C 95 % 1016,3 hPa 0,2 l/m 0 min 2 min 118 W/m 12,9 km/h (3 Bft) 100,00 %
27.05.2021 09:06 10,0 C 9,4 C 7,8 C 96 % 1016,3 hPa 0,0 l/m 0 min 2 min 104 W/m 12,9 km/h (3 Bft) 100,00 %
27.05.2021 09:08 10,0 C 9,4 C 7,8 C 96 % 1016,4 hPa 0,0 l/m 0 min 2 min 111 W/m 16,1 km/h (3 Bft) 100,00 %
27.05.2021 09:10 10,0 C 9,4 C 7,8 C 96 % 1016,3 hPa 0,0 l/m 0 min 2 min 105 W/m 12,9 km/h (3 Bft) 100,00 %
27.05.2021 09:12 10,0 C 9,4 C 7,8 C 96 % 1016,4 hPa 0,0 l/m 0 min 2 min 107 W/m 19,3 km/h (3 Bft) 100,00 %
27.05.2021 09:14 10,0 C 9,4 C 7,8 C 96 % 1016,4 hPa 0,0 l/m 0 min 2 min 115 W/m 16,1 km/h (3 Bft) 100,00 %
27.05.2021 09:16 10,0 C 9,4 C 7,8 C 96 % 1016,4 hPa 0,0 l/m 0 min 2 min 110 W/m 12,9 km/h (3 Bft) 100,00 %
27.05.2021 09:21 10,0 C 9,4 C 7,8 C 96 % 1016,4 hPa 0,0 l/m 0 min 5 min 128 W/m 12,9 km/h (3 Bft) 97,22 %
27.05.2021 09:26 10,1 C 10,0 C 7,8 C 96 % 1016,5 hPa 0,2 l/m 0 min 5 min 132 W/m 12,9 km/h (3 Bft) 93,88 %
27.05.2021 09:28 10,1 C 10,0 C 7,8 C 96 % 1016,4 hPa 0,0 l/m 0 min 2 min 123 W/m 12,9 km/h (3 Bft) 100,00 %
27.05.2021 09:30 10,1 C 9,4 C 7,8 C 96 % 1016,5 hPa 0,0 l/m 0 min 2 min 122 W/m 16,1 km/h (3 Bft) 100,00 %
27.05.2021 09:32 10,1 C 10,0 C 7,8 C 96 % 1016,5 hPa 0,0 l/m 0 min 2 min 122 W/m 12,9 km/h (3 Bft) 100,00 %
27.05.2021 09:34 10,1 C 10,0 C 7,8 C 96 % 1016,5 hPa 0,0 l/m 0 min 2 min 115 W/m 12,9 km/h (3 Bft) 97,87 %
27.05.2021 09:36 10,1 C 10,0 C 7,8 C 96 % 1016,5 hPa 0,0 l/m 0 min 2 min 112 W/m 19,3 km/h (3 Bft) 100,00 %
27.05.2021 09:38 10,1 C 9,4 C 7,8 C 96 % 1016,6 hPa 0,0 l/m 0 min 2 min 112 W/m 16,1 km/h (3 Bft) 100,00 %
27.05.2021 09:40 10,1 C 9,4 C 7,8 C 96 % 1016,5 hPa 0,0 l/m 0 min 2 min 120 W/m 12,9 km/h (3 Bft) 100,00 %
27.05.2021 09:42 10,1 C 9,4 C 7,8 C 96 % 1016,6 hPa 0,0 l/m 0 min 2 min 111 W/m 9,7 km/h (2 Bft) 100,00 %
27.05.2021 09:44 10,1 C 9,4 C 7,8 C 96 % 1016,6 hPa 0,0 l/m 0 min 2 min 116 W/m 12,9 km/h (3 Bft) 100,00 %
27.05.2021 09:46 10,2 C 9,4 C 7,8 C 96 % 1016,6 hPa 0,0 l/m 0 min 2 min 107 W/m 12,9 km/h (3 Bft) 100,00 %
27.05.2021 09:48 10,2 C 9,4 C 7,8 C 96 % 1016,6 hPa 0,0 l/m 0 min 2 min 109 W/m 9,7 km/h (2 Bft) 100,00 %
27.05.2021 09:50 10,2 C 10,0 C 7,8 C 96 % 1016,5 hPa 0,2 l/m 0 min 2 min 111 W/m 12,9 km/h (3 Bft) 100,00 %
27.05.2021 09:52 10,1 C 9,4 C 7,8 C 96 % 1016,6 hPa 0,0 l/m 0 min 2 min 118 W/m 9,7 km/h (2 Bft) 100,00 %
27.05.2021 09:54 10,2 C 9,4 C 7,8 C 96 % 1016,6 hPa 0,0 l/m 0 min 2 min 123 W/m 12,9 km/h (3 Bft) 100,00 %
27.05.2021 09:56 10,2 C 10,0 C 7,8 C 96 % 1016,7 hPa 0,0 l/m 0 min 2 min 120 W/m 12,9 km/h (3 Bft) 100,00 %
27.05.2021 09:58 10,2 C 10,0 C 7,8 C 96 % 1016,6 hPa 0,0 l/m 0 min 2 min 120 W/m 12,9 km/h (3 Bft) 97,87 %
27.05.2021 10:00 10,2 C 10,0 C 8,4 C 96 % 1016,7 hPa 0,0 l/m 0 min 2 min 97 W/m 6,4 km/h (2 Bft) 100,00 %
27.05.2021 10:02 10,3 C 10,0 C 7,8 C 96 % 1016,6 hPa 0,0 l/m 0 min 2 min 94 W/m 12,9 km/h (3 Bft) 100,00 %
27.05.2021 10:04 10,3 C 10,0 C 7,8 C 96 % 1016,7 hPa 0,2 l/m 0 min 2 min 98 W/m 12,9 km/h (3 Bft) 95,65 %
27.05.2021 10:06 10,3 C 10,0 C 7,8 C 96 % 1016,7 hPa 0,0 l/m 0 min 2 min 106 W/m 16,1 km/h (3 Bft) 97,87 %
27.05.2021 10:08 10,2 C 10,0 C 7,8 C 96 % 1016,7 hPa 0,0 l/m 0 min 2 min 121 W/m 12,9 km/h (3 Bft) 95,92 %
27.05.2021 10:10 10,2 C 10,0 C 7,8 C 96 % 1016,7 hPa 0,0 l/m 0 min 2 min 128 W/m 16,1 km/h (3 Bft) 100,00 %
27.05.2021 10:12 10,2 C 9,4 C 7,8 C 96 % 1016,7 hPa 0,0 l/m 0 min 2 min 128 W/m 12,9 km/h (3 Bft) 100,00 %
27.05.2021 10:14 10,2 C 9,4 C 8,4 C 96 % 1016,7 hPa 0,0 l/m 0 min 2 min 152 W/m 6,4 km/h (2 Bft) 100,00 %
27.05.2021 10:16 10,2 C 10,0 C 8,4 C 96 % 1016,7 hPa 0,0 l/m 0 min 2 min 152 W/m 16,1 km/h (3 Bft) 93,62 %
27.05.2021 10:18 10,2 C 10,0 C 8,4 C 96 % 1016,7 hPa 0,0 l/m 0 min 2 min 155 W/m 12,9 km/h (3 Bft) 93,62 %
27.05.2021 10:20 10,2 C 10,0 C 8,4 C 96 % 1016,7 hPa 0,0 l/m 0 min 2 min 159 W/m 16,1 km/h (3 Bft) 93,62 %
27.05.2021 10:22 10,2 C 10,0 C 8,4 C 96 % 1016,8 hPa 0,0 l/m 0 min 2 min 144 W/m 16,1 km/h (3 Bft) 93,62 %
27.05.2021 10:24 10,3 C 10,0 C 8,4 C 96 % 1016,8 hPa 0,0 l/m 0 min 2 min 157 W/m 6,4 km/h (2 Bft) 95,74 %
27.05.2021 10:26 10,3 C 10,0 C 8,4 C 96 % 1016,7 hPa 0,0 l/m 0 min 2 min 160 W/m 6,4 km/h (2 Bft) 95,65 %
27.05.2021 10:28 10,4 C 10,0 C 8,4 C 96 % 1016,8 hPa 0,2 l/m 0 min 2 min 159 W/m 9,7 km/h (2 Bft) 95,74 %
27.05.2021 10:30 10,4 C 10,0 C 8,4 C 96 % 1016,8 hPa 0,0 l/m 0 min 2 min 156 W/m 9,7 km/h (2 Bft) 97,87 %
27.05.2021 10:32 10,4 C 10,0 C 8,4 C 96 % 1016,8 hPa 0,0 l/m 0 min 2 min 144 W/m 12,9 km/h (3 Bft) 89,36 %
27.05.2021 10:34 10,4 C 10,0 C 8,4 C 96 % 1016,8 hPa 0,0 l/m 0 min 2 min 157 W/m 9,7 km/h (2 Bft) 91,49 %
27.05.2021 10:36 10,4 C 10,0 C 8,4 C 96 % 1016,9 hPa 0,0 l/m 0 min 2 min 150 W/m 12,9 km/h (3 Bft) 95,65 %
27.05.2021 10:38 10,4 C 10,0 C 8,4 C 96 % 1016,8 hPa 0,0 l/m 0 min 2 min 136 W/m 16,1 km/h (3 Bft) 91,49 %
27.05.2021 10:40 10,4 C 10,0 C 8,4 C 96 % 1016,9 hPa 0,0 l/m 0 min 2 min 145 W/m 12,9 km/h (3 Bft) 93,62 %
27.05.2021 10:42 10,4 C 10,0 C 8,4 C 96 % 1016,8 hPa 0,0 l/m 0 min 2 min 153 W/m 9,7 km/h (2 Bft) 91,49 %
27.05.2021 10:44 10,4 C 10,0 C 8,4 C 96 % 1016,9 hPa 0,0 l/m 0 min 2 min 140 W/m 12,9 km/h (3 Bft) 93,62 %
27.05.2021 10:46 10,4 C 10,0 C 8,4 C 96 % 1016,9 hPa 0,0 l/m 0 min 2 min 137 W/m 12,9 km/h (3 Bft) 91,67 %
27.05.2021 10:48 10,4 C 10,0 C 8,4 C 96 % 1016,9 hPa 0,2 l/m 0 min 2 min 148 W/m 9,7 km/h (2 Bft) 97,83 %
27.05.2021 10:50 10,4 C 10,0 C 8,4 C 96 % 1016,9 hPa 0,0 l/m 0 min 2 min 140 W/m 19,3 km/h (3 Bft) 91,49 %
27.05.2021 10:52 10,4 C 10,0 C 8,4 C 96 % 1016,9 hPa 0,0 l/m 0 min 2 min 143 W/m 12,9 km/h (3 Bft) 93,62 %
27.05.2021 10:54 10,4 C 10,0 C 8,4 C 96 % 1016,9 hPa 0,0 l/m 0 min 2 min 140 W/m 16,1 km/h (3 Bft) 91,49 %
27.05.2021 10:56 10,4 C 10,0 C 8,4 C 96 % 1017,0 hPa 0,0 l/m 0 min 2 min 116 W/m 12,9 km/h (3 Bft) 93,62 %
27.05.2021 10:58 10,4 C 10,0 C 8,4 C 96 % 1017,0 hPa 0,0 l/m 0 min 2 min 110 W/m 16,1 km/h (3 Bft) 93,62 %
27.05.2021 11:00 10,3 C 10,0 C 8,4 C 96 % 1017,1 hPa 0,0 l/m 0 min 2 min 80 W/m 16,1 km/h (3 Bft) 93,48 %
27.05.2021 11:02 10,3 C 9,4 C 8,4 C 96 % 1017,1 hPa 0,2 l/m 0 min 2 min 78 W/m 16,1 km/h (3 Bft) 93,62 %
27.05.2021 11:04 10,3 C 9,4 C 8,4 C 96 % 1017,0 hPa 0,0 l/m 0 min 2 min 102 W/m 9,7 km/h (2 Bft) 91,49 %
27.05.2021 11:06 10,3 C 9,4 C 8,4 C 96 % 1017,1 hPa 0,0 l/m 0 min 2 min 127 W/m 16,1 km/h (3 Bft) 95,74 %
27.05.2021 11:08 10,3 C 9,4 C 8,4 C 96 % 1017,1 hPa 0,0 l/m 0 min 2 min 124 W/m 22,5 km/h (4 Bft) 97,87 %
27.05.2021 11:10 10,3 C 9,4 C 8,4 C 96 % 1017,1 hPa 0,0 l/m 0 min 2 min 113 W/m 22,5 km/h (4 Bft) 97,87 %
27.05.2021 11:12 10,3 C 9,4 C 8,4 C 96 % 1017,2 hPa 0,0 l/m 0 min 2 min 124 W/m 19,3 km/h (3 Bft) 97,83 %
27.05.2021 11:14 10,3 C 9,4 C 8,4 C 96 % 1017,1 hPa 0,2 l/m 0 min 2 min 127 W/m 19,3 km/h (3 Bft) 95,74 %
27.05.2021 11:16 10,3 C 9,4 C 8,4 C 96 % 1017,2 hPa 0,0 l/m 0 min 2 min 117 W/m 12,9 km/h (3 Bft) 95,74 %
27.05.2021 11:18 10,3 C 10,0 C 8,4 C 96 % 1017,2 hPa 0,0 l/m 0 min 2 min 107 W/m 19,3 km/h (3 Bft) 97,87 %
27.05.2021 11:20 10,3 C 10,0 C 8,4 C 97 % 1017,2 hPa 0,0 l/m 0 min 2 min 108 W/m 9,7 km/h (2 Bft) 97,87 %
27.05.2021 11:22 10,3 C 10,0 C 8,4 C 96 % 1017,2 hPa 0,0 l/m 0 min 2 min 93 W/m 16,1 km/h (3 Bft) 97,87 %
27.05.2021 11:24 10,3 C 10,0 C 8,4 C 97 % 1017,3 hPa 0,0 l/m 0 min 2 min 92 W/m 16,1 km/h (3 Bft) 95,65 %
27.05.2021 11:26 10,3 C 10,0 C 8,4 C 96 % 1017,3 hPa 0,0 l/m 0 min 2 min 121 W/m 12,9 km/h (3 Bft) 97,87 %
27.05.2021 11:28 10,3 C 9,4 C 8,4 C 96 % 1017,3 hPa 0,2 l/m 0 min 2 min 90 W/m 9,7 km/h (2 Bft) 95,74 %
27.05.2021 11:30 10,3 C 9,4 C 8,4 C 97 % 1017,3 hPa 0,0 l/m 0 min 2 min 81 W/m 16,1 km/h (3 Bft) 97,87 %
27.05.2021 11:32 10,3 C 10,0 C 8,4 C 97 % 1017,3 hPa 0,0 l/m 0 min 2 min 105 W/m 16,1 km/h (3 Bft) 97,87 %
27.05.2021 11:34 10,3 C 10,0 C 8,4 C 97 % 1017,4 hPa 0,0 l/m 0 min 2 min 101 W/m 12,9 km/h (3 Bft) 97,87 %
27.05.2021 11:36 10,3 C 9,4 C 8,4 C 97 % 1017,4 hPa 0,0 l/m 0 min 2 min 88 W/m 16,1 km/h (3 Bft) 97,83 %
27.05.2021 11:38 10,3 C 9,4 C 8,4 C 97 % 1017,4 hPa 0,0 l/m 0 min 2 min 84 W/m 9,7 km/h (2 Bft) 97,87 %
27.05.2021 11:40 10,3 C 9,4 C 8,4 C 97 % 1017,5 hPa 0,2 l/m 0 min 2 min 67 W/m 12,9 km/h (3 Bft) 97,87 %
27.05.2021 11:42 10,3 C 9,4 C 8,4 C 97 % 1017,4 hPa 0,0 l/m 0 min 2 min 68 W/m 9,7 km/h (2 Bft) 97,87 %
27.05.2021 11:44 10,3 C 10,0 C 8,4 C 97 % 1017,5 hPa 0,0 l/m 0 min 2 min 89 W/m 16,1 km/h (3 Bft) 95,74 %
27.05.2021 11:46 10,3 C 10,0 C 8,4 C 97 % 1017,5 hPa 0,0 l/m 0 min 2 min 96 W/m 12,9 km/h (3 Bft) 97,87 %
27.05.2021 11:48 10,3 C 10,0 C 8,4 C 97 % 1017,5 hPa 0,0 l/m 0 min 2 min 120 W/m 12,9 km/h (3 Bft) 89,13 %
27.05.2021 11:50 10,3 C 10,0 C 8,4 C 97 % 1017,5 hPa 0,0 l/m 0 min 2 min 159 W/m 6,4 km/h (2 Bft) 97,87 %
27.05.2021 11:52 10,4 C 10,0 C 8,9 C 97 % 1017,5 hPa 0,2 l/m 0 min 2 min 193 W/m 6,4 km/h (2 Bft) 97,87 %
27.05.2021 11:54 10,5 C 10,0 C 8,9 C 97 % 1017,5 hPa 0,0 l/m 0 min 2 min 206 W/m 16,1 km/h (3 Bft) 97,87 %
27.05.2021 11:56 10,5 C 10,6 C 8,9 C 97 % 1017,4 hPa 0,0 l/m 0 min 2 min 187 W/m 16,1 km/h (3 Bft) 97,87 %
27.05.2021 11:58 10,6 C 10,6 C 8,9 C 97 % 1017,4 hPa 0,0 l/m 0 min 2 min 194 W/m 19,3 km/h (3 Bft) 97,87 %
27.05.2021 12:00 10,6 C 10,6 C 8,9 C 97 % 1017,5 hPa 0,0 l/m 0 min 2 min 182 W/m 12,9 km/h (3 Bft) 97,83 %
27.05.2021 12:02 10,6 C 10,6 C 8,9 C 97 % 1017,5 hPa 0,0 l/m 0 min 2 min 196 W/m 12,9 km/h (3 Bft) 100,00 %
27.05.2021 12:04 10,7 C 10,6 C 8,9 C 97 % 1017,5 hPa 0,0 l/m 0 min 2 min 223 W/m 12,9 km/h (3 Bft) 97,87 %
27.05.2021 12:08 10,8 C 11,1 C 8,9 C 97 % 1017,5 hPa 0,0 l/m 0 min 4 min 232 W/m 9,7 km/h (2 Bft) 97,87 %
27.05.2021 12:10 10,9 C 11,1 C 9,5 C 97 % 1017,5 hPa 0,0 l/m 0 min 2 min 236 W/m 6,4 km/h (2 Bft) 97,87 %
27.05.2021 12:12 10,9 C 11,1 C 9,5 C 97 % 1017,5 hPa 0,0 l/m 0 min 2 min 234 W/m 16,1 km/h (3 Bft) 97,83 %
27.05.2021 12:14 11,0 C 11,1 C 9,5 C 97 % 1017,6 hPa 0,0 l/m 0 min 2 min 301 W/m 19,3 km/h (3 Bft) 97,87 %
27.05.2021 12:16 11,0 C 11,1 C 9,5 C 97 % 1017,5 hPa 0,0 l/m 0 min 2 min 291 W/m 12,9 km/h (3 Bft) 95,74 %
27.05.2021 12:18 11,1 C 11,7 C 9,5 C 97 % 1017,7 hPa 0,0 l/m 0 min 0 min 292 W/m 19,3 km/h (3 Bft) 100,00 %
27.05.2021 12:20 11,2 C 11,7 C 9,5 C 97 % 1017,6 hPa 0,0 l/m 0 min 2 min 299 W/m 16,1 km/h (3 Bft) 97,87 %
27.05.2021 12:22 11,1 C 11,1 C 9,5 C 97 % 1017,5 hPa 0,0 l/m 0 min 2 min 258 W/m 16,1 km/h (3 Bft) 97,83 %
27.05.2021 12:24 11,1 C 11,1 C 9,5 C 97 % 1017,6 hPa 0,0 l/m 0 min 2 min 207 W/m 19,3 km/h (3 Bft) 100,00 %
27.05.2021 12:26 11,1 C 11,1 C 9,5 C 97 % 1017,6 hPa 0,0 l/m 0 min 2 min 171 W/m 19,3 km/h (3 Bft) 97,87 %
27.05.2021 12:28 11,1 C 11,1 C 9,5 C 97 % 1017,6 hPa 0,0 l/m 0 min 2 min 224 W/m 6,4 km/h (2 Bft) 100,00 %
27.05.2021 12:30 11,1 C 11,1 C 9,5 C 97 % 1017,6 hPa 0,0 l/m 0 min 0 min 271 W/m 19,3 km/h (3 Bft) 100,00 %
27.05.2021 12:32 11,2 C 11,1 C 9,5 C 97 % 1017,6 hPa 0,0 l/m 0 min 0 min 259 W/m 16,1 km/h (3 Bft) 95,74 %
27.05.2021 12:34 11,2 C 11,7 C 9,5 C 96 % 1017,6 hPa 0,0 l/m 0 min 0 min 248 W/m 25,7 km/h (4 Bft) 100,00 %
27.05.2021 12:36 11,3 C 11,1 C 9,5 C 96 % 1017,7 hPa 0,0 l/m 0 min 0 min 227 W/m 16,1 km/h (3 Bft) 100,00 %
27.05.2021 12:38 11,3 C 11,7 C 9,5 C 96 % 1017,6 hPa 0,0 l/m 0 min 0 min 259 W/m 19,3 km/h (3 Bft) 97,87 %
27.05.2021 12:40 11,2 C 11,1 C 9,5 C 96 % 1017,7 hPa 0,0 l/m 0 min 0 min 263 W/m 12,9 km/h (3 Bft) 100,00 %
27.05.2021 12:42 11,2 C 11,1 C 9,5 C 96 % 1017,7 hPa 0,0 l/m 0 min 2 min 220 W/m 16,1 km/h (3 Bft) 97,87 %
27.05.2021 12:44 11,1 C 11,1 C 9,5 C 96 % 1017,7 hPa 0,0 l/m 0 min 2 min 156 W/m 16,1 km/h (3 Bft) 97,87 %
27.05.2021 12:46 11,1 C 11,1 C 9,5 C 96 % 1017,7 hPa 0,0 l/m 0 min 0 min 132 W/m 22,5 km/h (4 Bft) 97,83 %
27.05.2021 12:48 11,1 C 11,1 C 8,9 C 96 % 1017,8 hPa 0,0 l/m 0 min 0 min 109 W/m 16,1 km/h (3 Bft) 100,00 %
27.05.2021 12:50 11,2 C 11,1 C 8,9 C 96 % 1017,8 hPa 0,0 l/m 0 min 2 min 92 W/m 25,7 km/h (4 Bft) 100,00 %
27.05.2021 12:52 11,2 C 11,1 C 8,9 C 95 % 1017,8 hPa 0,0 l/m 0 min 0 min 156 W/m 22,5 km/h (4 Bft) 95,74 %
27.05.2021 12:54 11,3 C 11,1 C 9,5 C 95 % 1017,8 hPa 0,0 l/m 0 min 0 min 242 W/m 16,1 km/h (3 Bft) 100,00 %
27.05.2021 12:56 11,3 C 11,1 C 9,5 C 95 % 1017,8 hPa 0,0 l/m 0 min 0 min 229 W/m 12,9 km/h (3 Bft) 100,00 %
27.05.2021 12:58 11,4 C 11,7 C 9,5 C 95 % 1017,8 hPa 0,0 l/m 0 min 0 min 220 W/m 16,1 km/h (3 Bft) 100,00 %
27.05.2021 13:00 11,5 C 11,7 C 9,5 C 95 % 1017,8 hPa 0,0 l/m 0 min 0 min 212 W/m 12,9 km/h (3 Bft) 97,87 %
27.05.2021 13:02 11,5 C 11,7 C 9,5 C 95 % 1017,8 hPa 0,0 l/m 0 min 0 min 183 W/m 12,9 km/h (3 Bft) 95,74 %
27.05.2021 13:04 11,5 C 11,7 C 9,5 C 95 % 1017,8 hPa 0,0 l/m 0 min 0 min 161 W/m 12,9 km/h (3 Bft) 100,00 %
27.05.2021 13:06 11,5 C 11,7 C 9,5 C 95 % 1017,8 hPa 0,0 l/m 0 min 0 min 167 W/m 12,9 km/h (3 Bft) 100,00 %
27.05.2021 13:08 11,5 C 11,7 C 9,5 C 95 % 1017,9 hPa 0,0 l/m 0 min 0 min 188 W/m 9,7 km/h (2 Bft) 100,00 %
27.05.2021 13:10 11,5 C 11,7 C 9,5 C 94 % 1017,8 hPa 0,0 l/m 0 min 0 min 153 W/m 12,9 km/h (3 Bft) 97,87 %
27.05.2021 13:12 11,5 C 11,7 C 9,5 C 94 % 1017,9 hPa 0,0 l/m 0 min 0 min 166 W/m 16,1 km/h (3 Bft) 95,65 %
27.05.2021 13:14 11,5 C 11,1 C 9,5 C 94 % 1017,9 hPa 0,0 l/m 0 min 0 min 148 W/m 19,3 km/h (3 Bft) 95,74 %
27.05.2021 13:16 11,5 C 11,1 C 9,5 C 94 % 1017,9 hPa 0,0 l/m 0 min 0 min 102 W/m 9,7 km/h (2 Bft) 95,74 %
27.05.2021 13:18 11,5 C 11,1 C 9,5 C 94 % 1017,9 hPa 0,0 l/m 0 min 0 min 92 W/m 19,3 km/h (3 Bft) 95,74 %
27.05.2021 13:20 11,4 C 11,1 C 9,5 C 94 % 1017,8 hPa 0,0 l/m 0 min 0 min 119 W/m 9,7 km/h (2 Bft) 91,49 %
27.05.2021 13:22 11,5 C 11,1 C 9,5 C 94 % 1017,9 hPa 0,0 l/m 0 min 0 min 175 W/m 19,3 km/h (3 Bft) 95,65 %
27.05.2021 13:24 11,5 C 11,7 C 9,5 C 94 % 1017,9 hPa 0,0 l/m 0 min 0 min 222 W/m 19,3 km/h (3 Bft) 95,74 %
27.05.2021 13:26 11,5 C 11,7 C 9,5 C 94 % 1017,9 hPa 0,0 l/m 0 min 0 min 244 W/m 12,9 km/h (3 Bft) 93,62 %
27.05.2021 13:28 11,5 C 11,7 C 9,5 C 94 % 1017,9 hPa 0,0 l/m 0 min 0 min 211 W/m 16,1 km/h (3 Bft) 95,74 %
27.05.2021 13:30 11,6 C 11,7 C 9,5 C 94 % 1017,9 hPa 0,0 l/m 0 min 0 min 165 W/m 16,1 km/h (3 Bft) 95,74 %
27.05.2021 13:32 11,6 C 11,7 C 9,5 C 94 % 1018,0 hPa 0,0 l/m 0 min 0 min 118 W/m 16,1 km/h (3 Bft) 93,62 %
27.05.2021 13:34 11,6 C 11,7 C 9,5 C 94 % 1018,0 hPa 0,0 l/m 0 min 0 min 112 W/m 12,9 km/h (3 Bft) 95,65 %
27.05.2021 13:36 11,6 C 11,7 C 9,5 C 94 % 1017,9 hPa 0,0 l/m 0 min 0 min 153 W/m 16,1 km/h (3 Bft) 95,74 %
27.05.2021 13:38 11,6 C 11,7 C 9,5 C 93 % 1018,0 hPa 0,0 l/m 0 min 0 min 190 W/m 22,5 km/h (4 Bft) 95,74 %
27.05.2021 13:40 11,6 C 11,7 C 9,5 C 93 % 1018,1 hPa 0,0 l/m 0 min 0 min 196 W/m 16,1 km/h (3 Bft) 95,74 %
27.05.2021 13:42 11,6 C 11,7 C 9,5 C 93 % 1018,0 hPa 0,0 l/m 0 min 0 min 208 W/m 19,3 km/h (3 Bft) 95,74 %
27.05.2021 13:44 11,6 C 11,7 C 9,5 C 93 % 1018,0 hPa 0,0 l/m 0 min 0 min 172 W/m 12,9 km/h (3 Bft) 93,62 %
27.05.2021 13:46 11,7 C 11,7 C 9,5 C 93 % 1018,0 hPa 0,0 l/m 0 min 0 min 130 W/m 19,3 km/h (3 Bft) 95,65 %
27.05.2021 13:48 11,6 C 11,7 C 9,5 C 93 % 1018,1 hPa 0,0 l/m 0 min 0 min 148 W/m 19,3 km/h (3 Bft) 95,74 %
27.05.2021 13:50 11,7 C 11,7 C 9,5 C 92 % 1018,2 hPa 0,0 l/m 0 min 0 min 183 W/m 12,9 km/h (3 Bft) 95,74 %
27.05.2021 13:52 11,7 C 11,7 C 9,5 C 92 % 1018,1 hPa 0,0 l/m 0 min 0 min 149 W/m 12,9 km/h (3 Bft) 93,62 %
27.05.2021 13:54 11,7 C 11,7 C 9,5 C 92 % 1018,1 hPa 0,0 l/m 0 min 0 min 140 W/m 19,3 km/h (3 Bft) 93,62 %
27.05.2021 13:56 11,8 C 11,7 C 9,5 C 92 % 1018,2 hPa 0,0 l/m 0 min 0 min 158 W/m 12,9 km/h (3 Bft) 95,74 %
27.05.2021 13:58 11,7 C 11,7 C 9,5 C 92 % 1018,2 hPa 0,0 l/m 0 min 0 min 183 W/m 12,9 km/h (3 Bft) 95,65 %
27.05.2021 14:00 11,8 C 11,7 C 9,5 C 92 % 1018,2 hPa 0,0 l/m 0 min 0 min 194 W/m 19,3 km/h (3 Bft) 95,74 %
27.05.2021 14:02 11,8 C 11,7 C 9,5 C 92 % 1018,2 hPa 0,0 l/m 0 min 0 min 175 W/m 16,1 km/h (3 Bft) 97,87 %
27.05.2021 14:04 11,8 C 11,7 C 9,5 C 92 % 1018,2 hPa 0,0 l/m 0 min 0 min 184 W/m 19,3 km/h (3 Bft) 100,00 %
27.05.2021 14:06 11,8 C 11,7 C 9,5 C 92 % 1018,2 hPa 0,0 l/m 0 min 0 min 170 W/m 12,9 km/h (3 Bft) 100,00 %
27.05.2021 14:08 11,9 C 11,7 C 9,5 C 92 % 1018,2 hPa 0,0 l/m 0 min 0 min 159 W/m 9,7 km/h (2 Bft) 100,00 %
27.05.2021 14:10 11,9 C 11,7 C 9,5 C 92 % 1018,2 hPa 0,0 l/m 0 min 0 min 150 W/m 12,9 km/h (3 Bft) 100,00 %
27.05.2021 14:12 11,9 C 11,7 C 9,5 C 91 % 1018,2 hPa 0,0 l/m 0 min 0 min 149 W/m 19,3 km/h (3 Bft) 100,00 %
27.05.2021 14:14 11,9 C 11,7 C 9,5 C 91 % 1018,2 hPa 0,0 l/m 0 min 0 min 143 W/m 6,4 km/h (2 Bft) 100,00 %
27.05.2021 14:16 11,9 C 11,7 C 9,5 C 91 % 1018,2 hPa 0,0 l/m 0 min 0 min 151 W/m 12,9 km/h (3 Bft) 100,00 %
27.05.2021 14:18 11,9 C 11,7 C 9,5 C 91 % 1018,2 hPa 0,0 l/m 0 min 0 min 150 W/m 12,9 km/h (3 Bft) 100,00 %
27.05.2021 14:20 11,9 C 11,7 C 9,5 C 91 % 1018,2 hPa 0,0 l/m 0 min 0 min 132 W/m 9,7 km/h (2 Bft) 100,00 %
27.05.2021 14:22 11,9 C 11,7 C 9,5 C 92 % 1018,2 hPa 0,0 l/m 0 min 2 min 112 W/m 12,9 km/h (3 Bft) 97,83 %
27.05.2021 14:24 11,9 C 11,7 C 9,5 C 91 % 1018,2 hPa 0,0 l/m 0 min 2 min 109 W/m 16,1 km/h (3 Bft) 100,00 %
27.05.2021 14:26 11,9 C 11,7 C 9,5 C 91 % 1018,2 hPa 0,0 l/m 0 min 2 min 132 W/m 16,1 km/h (3 Bft) 100,00 %
27.05.2021 14:28 11,9 C 11,7 C 9,5 C 91 % 1018,3 hPa 0,0 l/m 0 min 2 min 144 W/m 16,1 km/h (3 Bft) 100,00 %
27.05.2021 14:30 11,9 C 11,7 C 9,5 C 91 % 1018,3 hPa 0,0 l/m 0 min 2 min 129 W/m 19,3 km/h (3 Bft) 100,00 %
27.05.2021 14:32 11,9 C 11,7 C 9,5 C 91 % 1018,4 hPa 0,0 l/m 0 min 2 min 207 W/m 22,5 km/h (4 Bft) 100,00 %
27.05.2021 14:34 11,8 C 12,2 C 9,5 C 91 % 1018,3 hPa 0,0 l/m 0 min 0 min 358 W/m 16,1 km/h (3 Bft) 100,00 %
27.05.2021 14:36 11,9 C 12,2 C 10,0 C 91 % 1018,4 hPa 0,0 l/m 2 min 0 min 419 W/m 16,1 km/h (3 Bft) 100,00 %
27.05.2021 14:38 12,0 C 12,8 C 10,0 C 91 % 1018,4 hPa 0,0 l/m 2 min 2 min 522 W/m 22,5 km/h (4 Bft) 100,00 %
27.05.2021 14:40 12,1 C 13,3 C 10,6 C 91 % 1018,4 hPa 0,0 l/m 2 min 0 min 500 W/m 16,1 km/h (3 Bft) 100,00 %
27.05.2021 14:42 12,3 C 13,3 C 10,0 C 91 % 1018,4 hPa 0,0 l/m 2 min 0 min 449 W/m 19,3 km/h (3 Bft) 100,00 %
27.05.2021 14:44 12,4 C 13,3 C 10,6 C 91 % 1018,4 hPa 0,0 l/m 2 min 0 min 453 W/m 22,5 km/h (4 Bft) 100,00 %
27.05.2021 14:46 12,5 C 13,3 C 10,6 C 90 % 1018,4 hPa 0,0 l/m 0 min 0 min 383 W/m 16,1 km/h (3 Bft) 95,74 %
27.05.2021 14:48 12,5 C 13,3 C 10,6 C 90 % 1018,4 hPa 0,0 l/m 0 min 0 min 341 W/m 16,1 km/h (3 Bft) 100,00 %
27.05.2021 14:50 12,6 C 13,3 C 10,6 C 89 % 1018,5 hPa 0,0 l/m 0 min 0 min 281 W/m 16,1 km/h (3 Bft) 100,00 %
27.05.2021 14:52 12,6 C 12,8 C 10,0 C 89 % 1018,4 hPa 0,0 l/m 0 min 0 min 286 W/m 32,2 km/h (5 Bft) 100,00 %
27.05.2021 14:54 12,6 C 12,8 C 10,0 C 88 % 1018,4 hPa 0,0 l/m 0 min 0 min 274 W/m 25,7 km/h (4 Bft) 100,00 %
27.05.2021 14:56 12,6 C 12,8 C 10,0 C 88 % 1018,5 hPa 0,0 l/m 0 min 0 min 201 W/m 22,5 km/h (4 Bft) 100,00 %
27.05.2021 14:58 12,6 C 12,2 C 10,0 C 88 % 1018,5 hPa 0,0 l/m 0 min 0 min 127 W/m 16,1 km/h (3 Bft) 100,00 %
27.05.2021 15:00 12,6 C 12,2 C 9,5 C 88 % 1018,5 hPa 0,0 l/m 0 min 0 min 123 W/m 16,1 km/h (3 Bft) 100,00 %
27.05.2021 15:02 12,5 C 12,2 C 9,5 C 87 % 1018,5 hPa 0,0 l/m 0 min 0 min 103 W/m 22,5 km/h (4 Bft) 100,00 %
27.05.2021 15:04 12,5 C 12,2 C 9,5 C 87 % 1018,5 hPa 0,0 l/m 0 min 0 min 90 W/m 16,1 km/h (3 Bft) 100,00 %
27.05.2021 15:06 12,4 C 11,7 C 9,5 C 87 % 1018,6 hPa 0,0 l/m 0 min 0 min 97 W/m 25,7 km/h (4 Bft) 100,00 %
27.05.2021 15:08 12,4 C 11,7 C 9,5 C 87 % 1018,6 hPa 0,0 l/m 0 min 0 min 131 W/m 16,1 km/h (3 Bft) 100,00 %
27.05.2021 15:10 12,3 C 12,2 C 9,5 C 87 % 1018,6 hPa 0,0 l/m 0 min 0 min 188 W/m 25,7 km/h (4 Bft) 100,00 %
27.05.2021 15:12 12,3 C 12,2 C 9,5 C 87 % 1018,6 hPa 0,0 l/m 0 min 0 min 158 W/m 22,5 km/h (4 Bft) 100,00 %
27.05.2021 15:14 12,3 C 12,2 C 9,5 C 87 % 1018,6 hPa 0,0 l/m 0 min 0 min 87 W/m 19,3 km/h (3 Bft) 100,00 %
27.05.2021 15:16 12,2 C 11,7 C 9,5 C 87 % 1018,5 hPa 0,0 l/m 0 min 0 min 87 W/m 19,3 km/h (3 Bft) 100,00 %
27.05.2021 15:18 12,2 C 11,7 C 9,5 C 87 % 1018,6 hPa 0,0 l/m 0 min 0 min 80 W/m 12,9 km/h (3 Bft) 100,00 %
27.05.2021 15:20 12,1 C 11,7 C 9,5 C 87 % 1018,7 hPa 0,0 l/m 0 min 0 min 81 W/m 19,3 km/h (3 Bft) 100,00 %
27.05.2021 15:22 12,1 C 11,7 C 9,5 C 88 % 1018,6 hPa 0,0 l/m 0 min 0 min 71 W/m 12,9 km/h (3 Bft) 100,00 %
27.05.2021 15:24 12,1 C 11,7 C 9,5 C 88 % 1018,7 hPa 0,0 l/m 0 min 0 min 62 W/m 16,1 km/h (3 Bft) 100,00 %
27.05.2021 15:26 12,1 C 11,7 C 9,5 C 88 % 1018,7 hPa 0,0 l/m 0 min 0 min 62 W/m 6,4 km/h (2 Bft) 100,00 %
27.05.2021 15:28 12,1 C 11,7 C 9,5 C 88 % 1018,7 hPa 0,0 l/m 0 min 0 min 59 W/m 9,7 km/h (2 Bft) 100,00 %
27.05.2021 15:30 12,0 C 11,7 C 8,9 C 88 % 1018,8 hPa 0,0 l/m 0 min 0 min 54 W/m 12,9 km/h (3 Bft) 100,00 %
27.05.2021 15:32 12,0 C 11,7 C 8,9 C 88 % 1018,8 hPa 0,0 l/m 0 min 0 min 60 W/m 6,4 km/h (2 Bft) 100,00 %
27.05.2021 15:34 12,0 C 11,7 C 8,9 C 88 % 1018,8 hPa 0,0 l/m 0 min 0 min 76 W/m 9,7 km/h (2 Bft) 100,00 %
27.05.2021 15:36 12,0 C 11,7 C 8,9 C 88 % 1018,8 hPa 0,0 l/m 0 min 0 min 92 W/m 16,1 km/h (3 Bft) 100,00 %
27.05.2021 15:38 11,9 C 11,7 C 8,9 C 88 % 1018,8 hPa 0,0 l/m 0 min 0 min 96 W/m 29,0 km/h (5 Bft) 100,00 %
27.05.2021 15:40 11,9 C 11,7 C 8,9 C 88 % 1018,8 hPa 0,0 l/m 0 min 0 min 103 W/m 16,1 km/h (3 Bft) 100,00 %
27.05.2021 15:42 11,9 C 11,7 C 8,9 C 88 % 1018,8 hPa 0,0 l/m 0 min 0 min 103 W/m 19,3 km/h (3 Bft) 100,00 %
27.05.2021 15:44 11,9 C 11,7 C 8,9 C 88 % 1018,8 hPa 0,0 l/m 0 min 0 min 110 W/m 12,9 km/h (3 Bft) 100,00 %
27.05.2021 15:46 11,9 C 11,7 C 9,5 C 88 % 1018,9 hPa 0,0 l/m 0 min 0 min 144 W/m 12,9 km/h (3 Bft) 100,00 %
27.05.2021 15:48 11,9 C 11,7 C 9,5 C 88 % 1018,9 hPa 0,0 l/m 0 min 0 min 164 W/m 25,7 km/h (4 Bft) 100,00 %
27.05.2021 15:50 11,9 C 11,7 C 10,0 C 88 % 1019,0 hPa 0,0 l/m 0 min 0 min 181 W/m 19,3 km/h (3 Bft) 100,00 %
27.05.2021 15:52 12,0 C 11,7 C 10,0 C 88 % 1018,9 hPa 0,0 l/m 0 min 0 min 178 W/m 19,3 km/h (3 Bft) 100,00 %
27.05.2021 15:54 12,0 C 12,2 C 10,0 C 87 % 1019,0 hPa 0,0 l/m 0 min 0 min 206 W/m 12,9 km/h (3 Bft) 100,00 %
27.05.2021 15:56 12,0 C 12,2 C 10,6 C 88 % 1019,0 hPa 0,0 l/m 0 min 0 min 244 W/m 12,9 km/h (3 Bft) 100,00 %
27.05.2021 15:58 12,1 C 12,2 C 10,6 C 88 % 1019,1 hPa 0,0 l/m 0 min 0 min 254 W/m 16,1 km/h (3 Bft) 96,30 %
27.05.2021 16:00 12,1 C 12,8 C 10,6 C 88 % 1019,0 hPa 0,0 l/m 0 min 0 min 285 W/m 25,7 km/h (4 Bft) 100,00 %
27.05.2021 16:02 12,2 C 12,8 C 10,6 C 88 % 1019,0 hPa 0,0 l/m 0 min 0 min 353 W/m 16,1 km/h (3 Bft) 100,00 %
27.05.2021 16:04 12,3 C 12,8 C 11,1 C 87 % 1019,0 hPa 0,0 l/m 2 min 0 min 367 W/m 19,3 km/h (3 Bft) 95,74 %
27.05.2021 16:06 12,4 C 13,3 C 11,1 C 87 % 1019,0 hPa 0,0 l/m 0 min 0 min 344 W/m 22,5 km/h (4 Bft) 98,04 %
27.05.2021 16:08 12,5 C 13,3 C 11,1 C 87 % 1019,1 hPa 0,0 l/m 0 min 0 min 299 W/m 22,5 km/h (4 Bft) 93,48 %
27.05.2021 16:10 12,5 C 12,8 C 11,1 C 87 % 1019,1 hPa 0,0 l/m 0 min 0 min 268 W/m 22,5 km/h (4 Bft) 97,83 %
27.05.2021 16:12 12,6 C 12,8 C 11,1 C 86 % 1019,0 hPa 0,0 l/m 0 min 0 min 242 W/m 19,3 km/h (3 Bft) 100,00 %
27.05.2021 16:14 12,6 C 12,8 C 11,1 C 86 % 1019,0 hPa 0,0 l/m 0 min 0 min 251 W/m 16,1 km/h (3 Bft) 97,87 %
27.05.2021 16:16 12,6 C 12,8 C 11,1 C 86 % 1019,1 hPa 0,0 l/m 0 min 0 min 235 W/m 29,0 km/h (5 Bft) 93,62 %
27.05.2021 16:18 12,6 C 12,8 C 11,1 C 86 % 1019,1 hPa 0,0 l/m 0 min 0 min 203 W/m 19,3 km/h (3 Bft) 97,87 %
27.05.2021 16:20 12,6 C 12,8 C 11,1 C 86 % 1019,1 hPa 0,0 l/m 0 min 0 min 220 W/m 22,5 km/h (4 Bft) 95,74 %
27.05.2021 16:22 12,6 C 12,8 C 11,1 C 85 % 1019,1 hPa 0,0 l/m 0 min 0 min 266 W/m 25,7 km/h (4 Bft) 95,65 %
27.05.2021 16:24 12,7 C 12,8 C 11,1 C 85 % 1019,1 hPa 0,0 l/m 0 min 0 min 297 W/m 22,5 km/h (4 Bft) 93,62 %
27.05.2021 16:26 12,7 C 13,3 C 11,1 C 85 % 1019,1 hPa 0,0 l/m 2 min 0 min 375 W/m 19,3 km/h (3 Bft) 89,36 %
27.05.2021 16:28 12,8 C 13,9 C 11,1 C 86 % 1019,1 hPa 0,0 l/m 2 min 0 min 469 W/m 16,1 km/h (3 Bft) 93,62 %
27.05.2021 16:30 12,9 C 13,9 C 11,7 C 85 % 1019,1 hPa 0,0 l/m 2 min 0 min 399 W/m 19,3 km/h (3 Bft) 93,62 %
27.05.2021 16:32 12,9 C 13,9 C 11,7 C 85 % 1019,1 hPa 0,0 l/m 0 min 0 min 322 W/m 35,4 km/h (5 Bft) 93,62 %
27.05.2021 16:34 13,0 C 13,3 C 11,7 C 85 % 1019,2 hPa 0,0 l/m 0 min 0 min 235 W/m 22,5 km/h (4 Bft) 89,58 %
27.05.2021 16:36 13,0 C 12,8 C 11,1 C 85 % 1019,2 hPa 0,0 l/m 0 min 0 min 171 W/m 19,3 km/h (3 Bft) 93,62 %
27.05.2021 16:38 12,9 C 12,8 C 11,1 C 85 % 1019,2 hPa 0,0 l/m 0 min 0 min 178 W/m 22,5 km/h (4 Bft) 88,68 %
27.05.2021 16:40 12,9 C 12,8 C 11,1 C 84 % 1019,2 hPa 0,0 l/m 0 min 0 min 162 W/m 16,1 km/h (3 Bft) 91,43 %
27.05.2021 16:42 12,9 C 12,8 C 11,1 C 85 % 1019,3 hPa 0,0 l/m 0 min 0 min 146 W/m 16,1 km/h (3 Bft) 91,49 %
27.05.2021 16:44 12,9 C 12,8 C 11,1 C 85 % 1019,3 hPa 0,0 l/m 0 min 0 min 138 W/m 16,1 km/h (3 Bft) 97,87 %
27.05.2021 16:46 12,8 C 12,2 C 10,6 C 85 % 1019,4 hPa 0,0 l/m 0 min 0 min 102 W/m 19,3 km/h (3 Bft) 95,74 %
27.05.2021 16:48 12,8 C 12,2 C 10,6 C 85 % 1019,4 hPa 0,0 l/m 0 min 0 min 90 W/m 25,7 km/h (4 Bft) 93,48 %
27.05.2021 16:50 12,7 C 12,2 C 10,6 C 85 % 1019,4 hPa 0,0 l/m 0 min 0 min 63 W/m 22,5 km/h (4 Bft) 95,74 %
27.05.2021 16:52 12,7 C 12,2 C 10,0 C 86 % 1019,4 hPa 0,0 l/m 0 min 2 min 47 W/m 16,1 km/h (3 Bft) 95,74 %
27.05.2021 16:54 12,6 C 11,7 C 9,5 C 86 % 1019,4 hPa 0,2 l/m 0 min 2 min 53 W/m 19,3 km/h (3 Bft) 87,23 %
27.05.2021 16:56 12,5 C 11,7 C 9,5 C 87 % 1019,5 hPa 0,0 l/m 0 min 2 min 65 W/m 6,4 km/h (2 Bft) 76,60 %
27.05.2021 16:58 12,4 C 11,7 C 9,5 C 88 % 1019,5 hPa 0,0 l/m 0 min 2 min 112 W/m 16,1 km/h (3 Bft) 93,62 %
27.05.2021 17:00 12,4 C 11,7 C 9,5 C 88 % 1019,5 hPa 0,0 l/m 0 min 2 min 108 W/m 12,9 km/h (3 Bft) 95,65 %
27.05.2021 17:02 12,3 C 11,7 C 9,5 C 88 % 1019,5 hPa 0,0 l/m 0 min 0 min 100 W/m 16,1 km/h (3 Bft) 95,74 %
27.05.2021 17:04 12,2 C 11,7 C 9,5 C 88 % 1019,5 hPa 0,0 l/m 0 min 2 min 111 W/m 16,1 km/h (3 Bft) 93,62 %
27.05.2021 17:06 12,1 C 11,7 C 9,5 C 88 % 1019,5 hPa 0,0 l/m 0 min 0 min 129 W/m 12,9 km/h (3 Bft) 93,62 %
27.05.2021 17:08 12,1 C 11,7 C 10,0 C 88 % 1019,5 hPa 0,0 l/m 0 min 0 min 121 W/m 9,7 km/h (2 Bft) 93,62 %
27.05.2021 17:10 12,1 C 11,7 C 10,0 C 89 % 1019,5 hPa 0,0 l/m 0 min 0 min 100 W/m 9,7 km/h (2 Bft) 93,62 %
27.05.2021 17:12 12,1 C 11,7 C 10,0 C 89 % 1019,5 hPa 0,0 l/m 0 min 0 min 76 W/m 12,9 km/h (3 Bft) 95,65 %
27.05.2021 17:14 12,1 C 11,7 C 10,0 C 89 % 1019,5 hPa 0,0 l/m 0 min 0 min 75 W/m 6,4 km/h (2 Bft) 93,62 %
27.05.2021 17:16 12,0 C 11,7 C 10,0 C 89 % 1019,5 hPa 0,0 l/m 0 min 0 min 109 W/m 16,1 km/h (3 Bft) 97,87 %
27.05.2021 17:18 12,0 C 11,7 C 10,0 C 89 % 1019,6 hPa 0,0 l/m 0 min 0 min 99 W/m 19,3 km/h (3 Bft) 93,62 %
27.05.2021 17:20 12,0 C 11,7 C 10,0 C 88 % 1019,6 hPa 0,0 l/m 0 min 0 min 70 W/m 19,3 km/h (3 Bft) 95,74 %
27.05.2021 17:22 11,9 C 11,1 C 9,5 C 88 % 1019,7 hPa 0,0 l/m 0 min 0 min 60 W/m 19,3 km/h (3 Bft) 95,74 %
27.05.2021 17:24 11,9 C 11,1 C 9,5 C 89 % 1019,7 hPa 0,0 l/m 0 min 0 min 52 W/m 12,9 km/h (3 Bft) 93,48 %
27.05.2021 17:26 11,9 C 11,1 C 9,5 C 89 % 1019,7 hPa 0,0 l/m 0 min 0 min 50 W/m 16,1 km/h (3 Bft) 95,74 %
27.05.2021 17:28 11,8 C 11,1 C 9,5 C 89 % 1019,7 hPa 0,0 l/m 0 min 0 min 50 W/m 12,9 km/h (3 Bft) 97,87 %
27.05.2021 17:30 11,8 C 11,1 C 9,5 C 89 % 1019,7 hPa 0,0 l/m 0 min 0 min 70 W/m 12,9 km/h (3 Bft) 95,74 %
27.05.2021 17:32 11,8 C 11,1 C 9,5 C 90 % 1019,7 hPa 0,0 l/m 0 min 0 min 100 W/m 9,7 km/h (2 Bft) 97,87 %
27.05.2021 17:34 11,8 C 11,1 C 9,5 C 90 % 1019,7 hPa 0,0 l/m 0 min 0 min 106 W/m 9,7 km/h (2 Bft) 100,00 %
27.05.2021 17:36 11,8 C 11,7 C 9,5 C 90 % 1019,8 hPa 0,0 l/m 0 min 0 min 76 W/m 16,1 km/h (3 Bft) 100,00 %
27.05.2021 17:38 11,8 C 11,1 C 9,5 C 90 % 1019,8 hPa 0,0 l/m 0 min 0 min 54 W/m 16,1 km/h (3 Bft) 100,00 %
27.05.2021 17:40 11,8 C 11,7 C 9,5 C 90 % 1019,8 hPa 0,0 l/m 0 min 0 min 52 W/m 16,1 km/h (3 Bft) 100,00 %
27.05.2021 17:42 11,8 C 11,1 C 9,5 C 90 % 1019,8 hPa 0,0 l/m 0 min 0 min 58 W/m 9,7 km/h (2 Bft) 97,87 %
27.05.2021 17:44 11,8 C 11,7 C 9,5 C 90 % 1019,9 hPa 0,0 l/m 0 min 0 min 81 W/m 9,7 km/h (2 Bft) 97,87 %
27.05.2021 17:46 11,8 C 11,7 C 10,0 C 90 % 1019,8 hPa 0,0 l/m 0 min 0 min 97 W/m 22,5 km/h (4 Bft) 100,00 %
27.05.2021 17:48 11,8 C 11,7 C 10,0 C 90 % 1019,9 hPa 0,0 l/m 0 min 0 min 90 W/m 12,9 km/h (3 Bft) 100,00 %
27.05.2021 17:50 11,8 C 11,7 C 10,0 C 89 % 1019,9 hPa 0,0 l/m 0 min 0 min 70 W/m 16,1 km/h (3 Bft) 100,00 %
27.05.2021 17:52 11,8 C 11,7 C 10,0 C 89 % 1019,9 hPa 0,0 l/m 0 min 0 min 58 W/m 29,0 km/h (5 Bft) 95,74 %
27.05.2021 17:54 11,8 C 11,7 C 10,0 C 88 % 1019,9 hPa 0,0 l/m 0 min 0 min 51 W/m 19,3 km/h (3 Bft) 100,00 %
27.05.2021 17:56 11,7 C 11,7 C 10,0 C 88 % 1019,9 hPa 0,0 l/m 0 min 0 min 51 W/m 16,1 km/h (3 Bft) 97,87 %
27.05.2021 17:58 11,8 C 11,7 C 10,0 C 88 % 1019,9 hPa 0,0 l/m 0 min 0 min 55 W/m 25,7 km/h (4 Bft) 100,00 %
27.05.2021 18:00 11,8 C 11,7 C 10,0 C 88 % 1020,0 hPa 0,0 l/m 0 min 0 min 58 W/m 16,1 km/h (3 Bft) 100,00 %
27.05.2021 18:02 11,8 C 11,7 C 10,0 C 88 % 1020,0 hPa 0,0 l/m 0 min 0 min 72 W/m 12,9 km/h (3 Bft) 97,87 %
27.05.2021 18:04 11,8 C 11,7 C 10,0 C 88 % 1020,0 hPa 0,0 l/m 0 min 0 min 79 W/m 19,3 km/h (3 Bft) 100,00 %
27.05.2021 18:08 11,8 C 11,7 C 10,0 C 88 % 1020,1 hPa 0,0 l/m 0 min 0 min 68 W/m 12,9 km/h (3 Bft) 98,94 %
27.05.2021 18:10 11,8 C 11,7 C 10,0 C 88 % 1020,0 hPa 0,0 l/m 0 min 0 min 78 W/m 9,7 km/h (2 Bft) 100,00 %
27.05.2021 18:12 11,8 C 11,7 C 10,0 C 88 % 1020,1 hPa 0,0 l/m 0 min 0 min 95 W/m 9,7 km/h (2 Bft) 100,00 %
27.05.2021 18:14 11,8 C 11,7 C 10,0 C 88 % 1020,0 hPa 0,0 l/m 0 min 0 min 94 W/m 16,1 km/h (3 Bft) 97,87 %
27.05.2021 18:16 11,9 C 11,7 C 10,0 C 88 % 1020,1 hPa 0,0 l/m 0 min 0 min 119 W/m 9,7 km/h (2 Bft) 100,00 %
27.05.2021 18:18 11,9 C 11,7 C 10,0 C 88 % 1020,1 hPa 0,0 l/m 0 min 0 min 128 W/m 19,3 km/h (3 Bft) 97,87 %
27.05.2021 18:20 11,9 C 11,7 C 10,0 C 88 % 1020,1 hPa 0,0 l/m 0 min 0 min 151 W/m 12,9 km/h (3 Bft) 100,00 %
27.05.2021 18:22 11,9 C 12,2 C 10,0 C 88 % 1020,1 hPa 0,0 l/m 0 min 0 min 166 W/m 12,9 km/h (3 Bft) 100,00 %
27.05.2021 18:24 12,0 C 12,2 C 10,0 C 88 % 1020,1 hPa 0,0 l/m 0 min 0 min 190 W/m 16,1 km/h (3 Bft) 100,00 %
27.05.2021 18:26 12,0 C 12,2 C 10,6 C 88 % 1020,1 hPa 0,0 l/m 0 min 0 min 187 W/m 9,7 km/h (2 Bft) 97,87 %
27.05.2021 18:28 12,1 C 12,2 C 10,6 C 88 % 1020,1 hPa 0,0 l/m 0 min 0 min 180 W/m 12,9 km/h (3 Bft) 100,00 %
27.05.2021 18:30 12,1 C 12,2 C 10,6 C 88 % 1020,1 hPa 0,0 l/m 0 min 0 min 152 W/m 16,1 km/h (3 Bft) 100,00 %
27.05.2021 18:32 12,1 C 12,2 C 10,6 C 87 % 1020,1 hPa 0,0 l/m 0 min 0 min 124 W/m 16,1 km/h (3 Bft) 100,00 %
27.05.2021 18:34 12,1 C 12,2 C 10,6 C 87 % 1020,1 hPa 0,0 l/m 0 min 0 min 99 W/m 12,9 km/h (3 Bft) 97,83 %
27.05.2021 18:36 12,1 C 11,7 C 10,6 C 87 % 1020,2 hPa 0,0 l/m 0 min 0 min 78 W/m 19,3 km/h (3 Bft) 100,00 %
27.05.2021 18:38 12,1 C 11,7 C 10,0 C 87 % 1020,1 hPa 0,0 l/m 0 min 0 min 60 W/m 16,1 km/h (3 Bft) 100,00 %
27.05.2021 18:40 12,1 C 11,7 C 10,0 C 86 % 1020,1 hPa 0,0 l/m 0 min 0 min 48 W/m 19,3 km/h (3 Bft) 100,00 %
27.05.2021 18:42 12,0 C 11,7 C 10,0 C 86 % 1020,2 hPa 0,0 l/m 0 min 0 min 54 W/m 16,1 km/h (3 Bft) 97,87 %
27.05.2021 18:44 12,0 C 11,7 C 10,0 C 86 % 1020,3 hPa 0,0 l/m 0 min 0 min 55 W/m 16,1 km/h (3 Bft) 97,87 %
27.05.2021 18:46 12,0 C 11,1 C 9,5 C 86 % 1020,3 hPa 0,0 l/m 0 min 0 min 52 W/m 19,3 km/h (3 Bft) 97,83 %
27.05.2021 18:48 11,9 C 11,1 C 9,5 C 87 % 1020,4 hPa 0,0 l/m 0 min 0 min 43 W/m 25,7 km/h (4 Bft) 97,87 %
27.05.2021 18:50 11,9 C 11,1 C 9,5 C 87 % 1020,4 hPa 0,0 l/m 0 min 0 min 42 W/m 19,3 km/h (3 Bft) 97,87 %
27.05.2021 18:52 11,8 C 11,1 C 8,9 C 88 % 1020,4 hPa 0,0 l/m 0 min 0 min 43 W/m 9,7 km/h (2 Bft) 97,87 %
27.05.2021 18:54 11,7 C 10,6 C 8,9 C 88 % 1020,4 hPa 0,0 l/m 0 min 0 min 40 W/m 12,9 km/h (3 Bft) 93,62 %
27.05.2021 18:56 11,6 C 10,6 C 8,9 C 89 % 1020,5 hPa 0,0 l/m 0 min 0 min 36 W/m 12,9 km/h (3 Bft) 97,87 %
27.05.2021 18:58 11,6 C 10,6 C 8,9 C 89 % 1020,5 hPa 0,0 l/m 0 min 0 min 34 W/m 12,9 km/h (3 Bft) 95,65 %
27.05.2021 19:00 11,5 C 10,6 C 8,4 C 90 % 1020,6 hPa 0,0 l/m 0 min 2 min 31 W/m 16,1 km/h (3 Bft) 97,87 %
27.05.2021 19:02 11,5 C 10,6 C 8,4 C 90 % 1020,6 hPa 0,0 l/m 0 min 2 min 27 W/m 9,7 km/h (2 Bft) 97,92 %
27.05.2021 19:04 11,4 C 10,6 C 8,4 C 91 % 1020,6 hPa 0,0 l/m 0 min 2 min 34 W/m 12,9 km/h (3 Bft) 95,74 %
27.05.2021 19:06 11,4 C 10,6 C 8,4 C 91 % 1020,6 hPa 0,0 l/m 0 min 0 min 35 W/m 6,4 km/h (2 Bft) 97,87 %
27.05.2021 19:08 11,3 C 10,6 C 8,4 C 91 % 1020,5 hPa 0,0 l/m 0 min 0 min 36 W/m 9,7 km/h (2 Bft) 95,74 %
27.05.2021 19:10 11,3 C 10,0 C 8,4 C 92 % 1020,5 hPa 0,0 l/m 0 min 2 min 37 W/m 6,4 km/h (2 Bft) 97,87 %
27.05.2021 19:12 11,2 C 10,0 C 8,4 C 92 % 1020,5 hPa 0,0 l/m 0 min 2 min 37 W/m 6,4 km/h (2 Bft) 95,74 %
27.05.2021 19:14 11,2 C 10,0 C 8,4 C 92 % 1020,6 hPa 0,0 l/m 0 min 2 min 39 W/m 12,9 km/h (3 Bft) 95,74 %
27.05.2021 19:16 11,1 C 10,0 C 8,4 C 92 % 1020,6 hPa 0,0 l/m 0 min 2 min 40 W/m 6,4 km/h (2 Bft) 97,87 %
27.05.2021 19:18 11,1 C 10,0 C 8,4 C 93 % 1020,6 hPa 0,0 l/m 0 min 2 min 48 W/m 12,9 km/h (3 Bft) 97,87 %
27.05.2021 19:20 11,0 C 10,6 C 8,4 C 93 % 1020,6 hPa 0,0 l/m 0 min 0 min 62 W/m 12,9 km/h (3 Bft) 97,87 %
27.05.2021 19:22 11,1 C 10,6 C 8,4 C 93 % 1020,6 hPa 0,0 l/m 0 min 0 min 82 W/m 6,4 km/h (2 Bft) 86,96 %
27.05.2021 19:24 11,1 C 10,6 C 8,4 C 94 % 1020,6 hPa 0,0 l/m 0 min 0 min 95 W/m 9,7 km/h (2 Bft) 91,49 %
27.05.2021 19:26 11,1 C 10,6 C 8,9 C 94 % 1020,6 hPa 0,0 l/m 0 min 0 min 99 W/m 6,4 km/h (2 Bft) 97,87 %
27.05.2021 19:28 11,1 C 10,6 C 8,9 C 94 % 1020,6 hPa 0,0 l/m 0 min 0 min 103 W/m 3,2 km/h (1 Bft) 95,74 %
27.05.2021 19:30 11,1 C 10,6 C 8,9 C 94 % 1020,6 hPa 0,0 l/m 0 min 0 min 104 W/m 3,2 km/h (1 Bft) 95,74 %
27.05.2021 19:32 11,1 C 10,6 C 8,9 C 94 % 1020,6 hPa 0,0 l/m 0 min 0 min 98 W/m 6,4 km/h (2 Bft) 97,83 %
27.05.2021 19:34 11,1 C 11,1 C 8,9 C 94 % 1020,5 hPa 0,0 l/m 0 min 0 min 93 W/m 3,2 km/h (1 Bft) 97,87 %
27.05.2021 19:36 11,1 C 11,1 C 8,9 C 95 % 1020,5 hPa 0,0 l/m 0 min 0 min 90 W/m 3,2 km/h (1 Bft) 97,87 %
27.05.2021 19:38 11,2 C 11,1 C 8,9 C 95 % 1020,6 hPa 0,0 l/m 0 min 0 min 84 W/m 3,2 km/h (1 Bft) 97,87 %
27.05.2021 19:40 11,2 C 11,1 C 8,9 C 95 % 1020,6 hPa 0,0 l/m 0 min 0 min 78 W/m 6,4 km/h (2 Bft) 97,87 %
27.05.2021 19:42 11,2 C 11,1 C 8,9 C 95 % 1020,6 hPa 0,0 l/m 0 min 0 min 72 W/m 6,4 km/h (2 Bft) 97,87 %
27.05.2021 19:44 11,3 C 11,1 C 8,9 C 95 % 1020,6 hPa 0,0 l/m 0 min 0 min 72 W/m 9,7 km/h (2 Bft) 95,65 %
27.05.2021 19:46 11,3 C 11,1 C 8,9 C 95 % 1020,7 hPa 0,0 l/m 0 min 0 min 74 W/m 6,4 km/h (2 Bft) 97,87 %
27.05.2021 19:48 11,3 C 11,1 C 8,9 C 95 % 1020,7 hPa 0,0 l/m 0 min 0 min 75 W/m 6,4 km/h (2 Bft) 97,87 %
27.05.2021 19:50 11,3 C 11,1 C 8,9 C 95 % 1020,7 hPa 0,0 l/m 0 min 0 min 75 W/m 6,4 km/h (2 Bft) 97,87 %
27.05.2021 19:52 11,3 C 11,1 C 8,9 C 95 % 1020,7 hPa 0,0 l/m 0 min 0 min 74 W/m 9,7 km/h (2 Bft) 97,87 %
27.05.2021 19:54 11,3 C 11,1 C 8,9 C 95 % 1020,7 hPa 0,0 l/m 0 min 0 min 70 W/m 9,7 km/h (2 Bft) 55,32 %
27.05.2021 19:56 11,3 C 11,1 C 8,9 C 95 % 1020,7 hPa 0,0 l/m 0 min 0 min 66 W/m 6,4 km/h (2 Bft) 97,83 %
27.05.2021 19:58 11,3 C 11,1 C 8,9 C 95 % 1020,8 hPa 0,0 l/m 0 min 0 min 62 W/m 9,7 km/h (2 Bft) 95,74 %
27.05.2021 20:00 11,3 C 11,1 C 8,9 C 94 % 1020,8 hPa 0,0 l/m 0 min 0 min 58 W/m 6,4 km/h (2 Bft) 97,87 %
27.05.2021 20:02 11,4 C 11,1 C 8,9 C 94 % 1020,7 hPa 0,0 l/m 0 min 0 min 57 W/m 6,4 km/h (2 Bft) 97,87 %
27.05.2021 20:04 11,4 C 11,1 C 8,9 C 94 % 1020,7 hPa 0,0 l/m 0 min 0 min 51 W/m 9,7 km/h (2 Bft) 97,87 %
27.05.2021 20:06 11,4 C 11,1 C 8,9 C 94 % 1020,7 hPa 0,0 l/m 0 min 0 min 46 W/m 12,9 km/h (3 Bft) 97,87 %
27.05.2021 20:08 11,4 C 11,1 C 8,9 C 94 % 1020,8 hPa 0,0 l/m 0 min 0 min 38 W/m 9,7 km/h (2 Bft) 97,83 %
27.05.2021 20:10 11,4 C 11,1 C 8,9 C 94 % 1020,7 hPa 0,0 l/m 0 min 0 min 32 W/m 9,7 km/h (2 Bft) 97,87 %
27.05.2021 20:12 11,4 C 11,1 C 8,9 C 94 % 1020,8 hPa 0,0 l/m 0 min 0 min 24 W/m 9,7 km/h (2 Bft) 97,87 %
27.05.2021 20:14 11,4 C 11,1 C 8,9 C 93 % 1020,8 hPa 0,0 l/m 0 min 0 min 19 W/m 9,7 km/h (2 Bft) 97,87 %
27.05.2021 20:16 11,3 C 11,1 C 8,9 C 93 % 1020,8 hPa 0,0 l/m 0 min 0 min 19 W/m 16,1 km/h (3 Bft) 97,87 %
27.05.2021 20:18 11,3 C 10,6 C 8,9 C 93 % 1020,8 hPa 0,0 l/m 0 min 0 min 19 W/m 16,1 km/h (3 Bft) 97,87 %
27.05.2021 20:20 11,3 C 10,6 C 8,9 C 93 % 1020,8 hPa 0,0 l/m 0 min 0 min 18 W/m 19,3 km/h (3 Bft) 97,83 %
27.05.2021 20:22 11,3 C 10,6 C 8,9 C 93 % 1020,8 hPa 0,0 l/m 0 min 0 min 17 W/m 12,9 km/h (3 Bft) 97,87 %
27.05.2021 20:24 11,2 C 10,6 C 8,9 C 92 % 1020,9 hPa 0,0 l/m 0 min 0 min 15 W/m 12,9 km/h (3 Bft) 100,00 %
27.05.2021 20:26 11,2 C 10,6 C 8,9 C 92 % 1020,9 hPa 0,0 l/m 0 min 0 min 14 W/m 9,7 km/h (2 Bft) 100,00 %
27.05.2021 20:28 11,2 C 10,6 C 8,9 C 92 % 1020,9 hPa 0,0 l/m 0 min 0 min 14 W/m 19,3 km/h (3 Bft) 100,00 %
27.05.2021 20:30 11,1 C 10,6 C 8,9 C 92 % 1021,0 hPa 0,0 l/m 0 min 0 min 14 W/m 12,9 km/h (3 Bft) 100,00 %
27.05.2021 20:32 11,1 C 10,6 C 8,9 C 92 % 1021,0 hPa 0,0 l/m 0 min 0 min 14 W/m 16,1 km/h (3 Bft) 97,87 %
27.05.2021 20:34 11,1 C 10,6 C 8,9 C 92 % 1021,0 hPa 0,0 l/m 0 min 0 min 17 W/m 6,4 km/h (2 Bft) 100,00 %
27.05.2021 20:36 11,1 C 10,6 C 8,9 C 93 % 1021,0 hPa 0,0 l/m 0 min 0 min 19 W/m 12,9 km/h (3 Bft) 100,00 %
27.05.2021 20:38 11,1 C 10,6 C 8,9 C 93 % 1021,0 hPa 0,0 l/m 0 min 0 min 21 W/m 9,7 km/h (2 Bft) 95,74 %
27.05.2021 20:40 11,1 C 10,6 C 8,9 C 93 % 1021,0 hPa 0,0 l/m 0 min 0 min 23 W/m 12,9 km/h (3 Bft) 100,00 %
27.05.2021 20:42 11,1 C 10,6 C 8,9 C 93 % 1021,0 hPa 0,0 l/m 0 min 0 min 23 W/m 3,2 km/h (1 Bft) 100,00 %
27.05.2021 20:44 11,1 C 10,6 C 8,9 C 93 % 1021,0 hPa 0,0 l/m 0 min 0 min 22 W/m 6,4 km/h (2 Bft) 97,87 %
27.05.2021 20:46 11,1 C 10,6 C 8,9 C 93 % 1021,0 hPa 0,0 l/m 0 min 0 min 21 W/m 6,4 km/h (2 Bft) 97,87 %
27.05.2021 20:48 11,1 C 10,6 C 8,9 C 93 % 1021,1 hPa 0,0 l/m 0 min 0 min 21 W/m 6,4 km/h (2 Bft) 95,74 %
27.05.2021 20:50 11,1 C 10,6 C 8,9 C 93 % 1021,1 hPa 0,0 l/m 0 min 0 min 21 W/m 3,2 km/h (1 Bft) 95,65 %
27.05.2021 20:52 11,0 C 10,6 C 8,9 C 93 % 1021,1 hPa 0,0 l/m 0 min 0 min 23 W/m 3,2 km/h (1 Bft) 97,87 %
27.05.2021 20:54 11,1 C 10,6 C 8,9 C 93 % 1021,1 hPa 0,0 l/m 0 min 0 min 23 W/m 6,4 km/h (2 Bft) 95,74 %
27.05.2021 20:56 11,1 C 10,6 C 8,9 C 93 % 1021,1 hPa 0,0 l/m 0 min 0 min 23 W/m 3,2 km/h (1 Bft) 93,62 %
27.05.2021 20:58 11,1 C 10,6 C 8,9 C 93 % 1021,1 hPa 0,0 l/m 0 min 0 min 24 W/m 6,4 km/h (2 Bft) 87,23 %
27.05.2021 21:00 11,0 C 10,6 C 8,9 C 93 % 1021,2 hPa 0,0 l/m 0 min 0 min 26 W/m 9,7 km/h (2 Bft) 89,36 %
27.05.2021 21:02 11,0 C 10,6 C 8,9 C 93 % 1021,1 hPa 0,0 l/m 0 min 0 min 28 W/m 3,2 km/h (1 Bft) 93,48 %
27.05.2021 21:04 11,0 C 10,6 C 8,9 C 93 % 1021,2 hPa 0,0 l/m 0 min 0 min 26 W/m 6,4 km/h (2 Bft) 93,62 %
27.05.2021 21:06 11,0 C 10,6 C 8,9 C 93 % 1021,2 hPa 0,0 l/m 2 min 0 min 25 W/m 6,4 km/h (2 Bft) 97,87 %
27.05.2021 21:08 11,0 C 10,6 C 8,9 C 93 % 1021,3 hPa 0,0 l/m 2 min 0 min 23 W/m 3,2 km/h (1 Bft) 100,00 %
27.05.2021 21:10 11,0 C 10,6 C 8,9 C 93 % 1021,2 hPa 0,0 l/m 0 min 0 min 19 W/m 6,4 km/h (2 Bft) 93,62 %
27.05.2021 21:12 11,0 C 10,6 C 8,9 C 92 % 1021,2 hPa 0,0 l/m 0 min 0 min 15 W/m 3,2 km/h (1 Bft) 100,00 %
27.05.2021 21:14 11,0 C 10,6 C 8,9 C 92 % 1021,2 hPa 0,0 l/m 0 min 0 min 12 W/m 3,2 km/h (1 Bft) 95,74 %
27.05.2021 21:16 11,0 C 10,6 C 8,9 C 92 % 1021,2 hPa 0,0 l/m 0 min 0 min 11 W/m 6,4 km/h (2 Bft) 97,87 %
27.05.2021 21:18 11,0 C 10,0 C 8,9 C 92 % 1021,3 hPa 0,0 l/m 0 min 0 min 9 W/m 3,2 km/h (1 Bft) 100,00 %
27.05.2021 21:20 10,9 C 10,0 C 8,9 C 92 % 1021,3 hPa 0,0 l/m 0 min 0 min 8 W/m 9,7 km/h (2 Bft) 100,00 %
27.05.2021 21:22 10,9 C 10,0 C 8,9 C 92 % 1021,3 hPa 0,0 l/m 0 min 0 min 7 W/m 6,4 km/h (2 Bft) 95,74 %
27.05.2021 21:24 10,9 C 10,0 C 8,9 C 92 % 1021,3 hPa 0,0 l/m 0 min 0 min 7 W/m 3,2 km/h (1 Bft) 97,87 %
27.05.2021 21:26 10,9 C 10,0 C 8,9 C 92 % 1021,3 hPa 0,0 l/m 0 min 0 min 6 W/m 3,2 km/h (1 Bft) 97,87 %
27.05.2021 21:28 10,8 C 10,0 C 8,9 C 92 % 1021,3 hPa 0,0 l/m 0 min 0 min 5 W/m 3,2 km/h (1 Bft) 97,87 %
27.05.2021 21:30 10,8 C 10,0 C 8,4 C 92 % 1021,3 hPa 0,0 l/m 0 min 0 min 5 W/m 6,4 km/h (2 Bft) 95,65 %
27.05.2021 21:32 10,8 C 10,0 C 8,4 C 92 % 1021,4 hPa 0,0 l/m 0 min 0 min 5 W/m 6,4 km/h (2 Bft) 93,75 %
27.05.2021 21:34 10,7 C 10,0 C 8,4 C 92 % 1021,4 hPa 0,0 l/m 0 min 0 min 5 W/m 6,4 km/h (2 Bft) 97,87 %
27.05.2021 21:36 10,7 C 10,0 C 8,4 C 92 % 1021,4 hPa 0,0 l/m 0 min 0 min 0 W/m 6,4 km/h (2 Bft) 97,87 %
27.05.2021 21:38 10,6 C 10,0 C 8,4 C 92 % 1021,5 hPa 0,0 l/m 0 min 0 min 0 W/m 3,2 km/h (1 Bft) 97,87 %
27.05.2021 21:40 10,6 C 10,0 C 8,4 C 92 % 1021,5 hPa 0,0 l/m 0 min 0 min 0 W/m 6,4 km/h (2 Bft) 95,74 %
27.05.2021 21:42 10,6 C 10,0 C 8,4 C 92 % 1021,6 hPa 0,0 l/m 0 min 0 min 0 W/m 3,2 km/h (1 Bft) 95,65 %
27.05.2021 21:44 10,6 C 10,0 C 8,4 C 92 % 1021,6 hPa 0,0 l/m 0 min 0 min 0 W/m 3,2 km/h (1 Bft) 93,62 %
27.05.2021 21:46 10,6 C 10,0 C 8,4 C 92 % 1021,6 hPa 0,0 l/m 0 min 0 min 0 W/m 3,2 km/h (1 Bft) 93,62 %
27.05.2021 21:48 10,6 C 10,0 C 8,4 C 92 % 1021,6 hPa 0,0 l/m 0 min 0 min 0 W/m 3,2 km/h (1 Bft) 95,74 %
27.05.2021 21:50 10,6 C 10,0 C 8,4 C 92 % 1021,7 hPa 0,0 l/m 0 min 0 min 0 W/m 6,4 km/h (2 Bft) 95,74 %
27.05.2021 21:52 10,6 C 10,0 C 8,4 C 92 % 1021,7 hPa 0,0 l/m 0 min 0 min 0 W/m 3,2 km/h (1 Bft) 91,49 %
27.05.2021 21:54 10,5 C 10,0 C 8,4 C 92 % 1021,7 hPa 0,0 l/m 0 min 0 min 0 W/m 3,2 km/h (1 Bft) 95,65 %
27.05.2021 21:56 10,5 C 10,0 C 8,4 C 92 % 1021,8 hPa 0,0 l/m 0 min 0 min 0 W/m 3,2 km/h (1 Bft) 95,74 %
27.05.2021 21:58 10,5 C 10,0 C 8,4 C 92 % 1021,8 hPa 0,0 l/m 0 min 0 min 0 W/m 3,2 km/h (1 Bft) 95,74 %
27.05.2021 22:00 10,5 C 10,0 C 8,4 C 92 % 1021,8 hPa 0,0 l/m 0 min 0 min 0 W/m 9,7 km/h (2 Bft) 95,74 %
27.05.2021 22:02 10,5 C 10,0 C 8,4 C 92 % 1021,8 hPa 0,0 l/m 0 min 0 min 0 W/m 6,4 km/h (2 Bft) 93,62 %
27.05.2021 22:04 10,5 C 10,0 C 8,4 C 92 % 1021,8 hPa 0,0 l/m 0 min 0 min 0 W/m 9,7 km/h (2 Bft) 95,74 %
27.05.2021 22:06 10,5 C 10,0 C 8,4 C 92 % 1021,8 hPa 0,0 l/m 0 min 0 min 0 W/m 6,4 km/h (2 Bft) 93,48 %
27.05.2021 22:08 10,5 C 10,0 C 8,4 C 92 % 1021,8 hPa 0,0 l/m 0 min 0 min 0 W/m 3,2 km/h (1 Bft) 89,58 %
27.05.2021 22:10 10,5 C 10,0 C 8,4 C 92 % 1021,8 hPa 0,0 l/m 0 min 0 min 0 W/m 3,2 km/h (1 Bft) 93,62 %
27.05.2021 22:12 10,5 C 10,0 C 8,4 C 92 % 1021,8 hPa 0,0 l/m 0 min 0 min 0 W/m 3,2 km/h (1 Bft) 95,74 %
27.05.2021 22:14 10,5 C 10,0 C 8,4 C 92 % 1021,9 hPa 0,0 l/m 0 min 0 min 0 W/m 3,2 km/h (1 Bft) 95,74 %
27.05.2021 22:16 10,5 C 10,0 C 8,4 C 92 % 1021,9 hPa 0,0 l/m 0 min 0 min 0 W/m 3,2 km/h (1 Bft) 91,49 %
27.05.2021 22:18 10,5 C 10,0 C 8,4 C 92 % 1021,9 hPa 0,0 l/m 0 min 0 min 0 W/m 3,2 km/h (1 Bft) 93,48 %
27.05.2021 22:20 10,5 C 10,0 C 8,4 C 92 % 1021,9 hPa 0,0 l/m 0 min 0 min 0 W/m 0,0 km/h (0 Bft) 91,49 %
27.05.2021 22:22 10,5 C 9,4 C 8,4 C 92 % 1021,9 hPa 0,0 l/m 0 min 0 min 0 W/m 0,0 km/h (0 Bft) 91,49 %
27.05.2021 22:24 10,5 C 9,4 C 8,4 C 92 % 1021,9 hPa 0,0 l/m 0 min 0 min 0 W/m 3,2 km/h (1 Bft) 93,62 %
27.05.2021 22:26 10,5 C 9,4 C 8,4 C 92 % 1022,0 hPa 0,0 l/m 0 min 0 min 0 W/m 0,0 km/h (0 Bft) 91,49 %
27.05.2021 22:28 10,4 C 9,4 C 8,4 C 92 % 1021,9 hPa 0,0 l/m 0 min 0 min 0 W/m 3,2 km/h (1 Bft) 93,48 %
27.05.2021 22:30 10,4 C 9,4 C 8,4 C 92 % 1022,0 hPa 0,0 l/m 0 min 0 min 0 W/m 3,2 km/h (1 Bft) 93,62 %
27.05.2021 22:32 10,4 C 9,4 C 8,4 C 92 % 1022,0 hPa 0,0 l/m 0 min 0 min 0 W/m 3,2 km/h (1 Bft) 95,74 %
27.05.2021 22:34 10,4 C 9,4 C 8,4 C 92 % 1022,1 hPa 0,0 l/m 0 min 0 min 0 W/m 3,2 km/h (1 Bft) 91,49 %
27.05.2021 22:36 10,4 C 9,4 C 7,8 C 92 % 1022,1 hPa 0,0 l/m 0 min 0 min 0 W/m 0,0 km/h (0 Bft) 95,74 %
27.05.2021 22:38 10,3 C 9,4 C 7,8 C 93 % 1022,2 hPa 0,0 l/m 0 min 0 min 0 W/m 0,0 km/h (0 Bft) 95,74 %
27.05.2021 22:40 10,3 C 9,4 C 7,8 C 93 % 1022,2 hPa 0,0 l/m 0 min 0 min 0 W/m 0,0 km/h (0 Bft) 95,65 %
27.05.2021 22:42 10,3 C 9,4 C 7,8 C 93 % 1022,2 hPa 0,0 l/m 0 min 0 min 0 W/m 3,2 km/h (1 Bft) 93,62 %
27.05.2021 22:44 10,2 C 9,4 C 7,8 C 93 % 1022,2 hPa 0,0 l/m 0 min 0 min 0 W/m 0,0 km/h (0 Bft) 91,49 %
27.05.2021 22:46 10,2 C 8,9 C 7,8 C 93 % 1022,2 hPa 0,0 l/m 0 min 0 min 0 W/m 3,2 km/h (1 Bft) 95,74 %
27.05.2021 22:48 10,1 C 8,9 C 7,8 C 93 % 1022,3 hPa 0,0 l/m 0 min 0 min 0 W/m 6,4 km/h (2 Bft) 95,74 %
27.05.2021 22:50 10,1 C 8,9 C 7,8 C 93 % 1022,3 hPa 0,0 l/m 0 min 0 min 0 W/m 6,4 km/h (2 Bft) 95,74 %
27.05.2021 22:52 10,1 C 8,9 C 7,8 C 93 % 1022,4 hPa 0,0 l/m 0 min 0 min 0 W/m 3,2 km/h (1 Bft) 93,48 %
27.05.2021 22:54 10,1 C 8,9 C 7,8 C 93 % 1022,3 hPa 0,0 l/m 0 min 0 min 0 W/m 3,2 km/h (1 Bft) 93,62 %
27.05.2021 22:56 10,0 C 8,9 C 7,8 C 93 % 1022,4 hPa 0,0 l/m 0 min 0 min 0 W/m 0,0 km/h (0 Bft) 95,74 %
27.05.2021 22:58 10,0 C 8,9 C 7,8 C 93 % 1022,4 hPa 0,0 l/m 0 min 0 min 0 W/m 0,0 km/h (0 Bft) 95,74 %
27.05.2021 23:00 10,0 C 8,9 C 7,8 C 93 % 1022,4 hPa 0,0 l/m 0 min 0 min 0 W/m 0,0 km/h (0 Bft) 100,00 %
27.05.2021 23:02 10,0 C 8,9 C 7,8 C 93 % 1022,4 hPa 0,0 l/m 0 min 0 min 0 W/m 0,0 km/h (0 Bft) 97,87 %
27.05.2021 23:04 10,0 C 8,9 C 7,3 C 93 % 1022,5 hPa 0,0 l/m 0 min 0 min 0 W/m 0,0 km/h (0 Bft) 97,83 %
27.05.2021 23:06 10,0 C 8,3 C 7,3 C 93 % 1022,5 hPa 0,0 l/m 0 min 0 min 0 W/m 0,0 km/h (0 Bft) 97,87 %
27.05.2021 23:08 9,9 C 8,3 C 7,3 C 93 % 1022,5 hPa 0,0 l/m 0 min 0 min 0 W/m 0,0 km/h (0 Bft) 97,87 %
27.05.2021 23:10 9,9 C 8,3 C 7,3 C 93 % 1022,5 hPa 0,0 l/m 0 min 0 min 0 W/m 0,0 km/h (0 Bft) 97,87 %
27.05.2021 23:12 9,9 C 8,3 C 7,3 C 93 % 1022,5 hPa 0,0 l/m 0 min 0 min 0 W/m 0,0 km/h (0 Bft) 97,87 %
27.05.2021 23:14 9,9 C 8,3 C 7,3 C 93 % 1022,5 hPa 0,0 l/m 0 min 0 min 0 W/m 0,0 km/h (0 Bft) 97,87 %
27.05.2021 23:16 9,8 C 8,3 C 7,3 C 93 % 1022,5 hPa 0,0 l/m 0 min 0 min 0 W/m 0,0 km/h (0 Bft) 97,83 %
27.05.2021 23:18 9,8 C 8,3 C 7,3 C 93 % 1022,5 hPa 0,0 l/m 0 min 0 min 0 W/m 0,0 km/h (0 Bft) 97,87 %
27.05.2021 23:20 9,8 C 8,3 C 7,3 C 93 % 1022,5 hPa 0,0 l/m 0 min 0 min 0 W/m 0,0 km/h (0 Bft) 97,92 %
27.05.2021 23:22 9,8 C 7,8 C 7,3 C 93 % 1022,5 hPa 0,0 l/m 0 min 0 min 0 W/m 0,0 km/h (0 Bft) 97,87 %
27.05.2021 23:24 9,7 C 7,8 C 7,3 C 93 % 1022,5 hPa 0,0 l/m 0 min 0 min 0 W/m 0,0 km/h (0 Bft) 97,87 %
27.05.2021 23:26 9,6 C 7,8 C 6,7 C 93 % 1022,5 hPa 0,0 l/m 0 min 0 min 0 W/m 0,0 km/h (0 Bft) 97,87 %
27.05.2021 23:28 9,6 C 7,8 C 6,7 C 93 % 1022,6 hPa 0,0 l/m 0 min 0 min 0 W/m 0,0 km/h (0 Bft) 100,00 %
27.05.2021 23:30 9,5 C 7,8 C 6,7 C 93 % 1022,6 hPa 0,0 l/m 0 min 0 min 0 W/m 0,0 km/h (0 Bft) 97,87 %
27.05.2021 23:32 9,5 C 7,8 C 6,7 C 93 % 1022,6 hPa 0,0 l/m 0 min 0 min 0 W/m 0,0 km/h (0 Bft) 100,00 %
27.05.2021 23:34 9,5 C 7,8 C 6,7 C 93 % 1022,6 hPa 0,0 l/m 0 min 0 min 0 W/m 0,0 km/h (0 Bft) 100,00 %
27.05.2021 23:36 9,5 C 7,8 C 6,7 C 93 % 1022,6 hPa 0,0 l/m 0 min 0 min 0 W/m 0,0 km/h (0 Bft) 100,00 %
27.05.2021 23:38 9,4 C 7,8 C 6,7 C 93 % 1022,7 hPa 0,0 l/m 0 min 0 min 0 W/m 0,0 km/h (0 Bft) 100,00 %
27.05.2021 23:40 9,4 C 7,2 C 6,7 C 93 % 1022,6 hPa 0,0 l/m 0 min 0 min 0 W/m 0,0 km/h (0 Bft) 97,83 %
27.05.2021 23:42 9,3 C 7,2 C 6,7 C 93 % 1022,6 hPa 0,0 l/m 0 min 0 min 0 W/m 0,0 km/h (0 Bft) 56,52 %
27.05.2021 23:44 9,3 C 7,2 C 6,7 C 93 % 1022,6 hPa 0,0 l/m 0 min 0 min 0 W/m 0,0 km/h (0 Bft) 100,00 %
27.05.2021 23:46 9,2 C 7,2 C 6,7 C 93 % 1022,6 hPa 0,0 l/m 0 min 0 min 0 W/m 0,0 km/h (0 Bft) 100,00 %
27.05.2021 23:48 9,2 C 7,2 C 6,7 C 93 % 1022,6 hPa 0,0 l/m 0 min 0 min 0 W/m 0,0 km/h (0 Bft) 100,00 %
27.05.2021 23:50 9,1 C 7,2 C 6,7 C 93 % 1022,7 hPa 0,0 l/m 0 min 0 min 0 W/m 0,0 km/h (0 Bft) 97,87 %
27.05.2021 23:52 9,1 C 7,2 C 6,7 C 93 % 1022,7 hPa 0,0 l/m 0 min 0 min 0 W/m 0,0 km/h (0 Bft) 97,83 %
27.05.2021 23:54 9,0 C 7,2 C 6,7 C 93 % 1022,8 hPa 0,0 l/m 0 min 0 min 0 W/m 0,0 km/h (0 Bft) 100,00 %
27.05.2021 23:56 9,0 C 7,2 C 6,1 C 93 % 1022,7 hPa 0,0 l/m 0 min 0 min 0 W/m 0,0 km/h (0 Bft) 100,00 %
27.05.2021 23:58 9,0 C 7,2 C 6,1 C 93 % 1022,7 hPa 0,0 l/m 0 min 0 min 0 W/m 0,0 km/h (0 Bft) 100,00 %
_ Min-Zeit 23:54 23:40 23:56 16:40 00:02 - - - - 22:20 00:02
Minimum _ 9,0 C 7,2 C 6,1 C 84 % 1014,1 hPa - - - - 0,0 km/h (0 Bft) 11,11 %
_ Max-Zeit 16:34 16:28 16:30 11:20 23:54 07:12 14:36 09:21 14:38 16:32 00:10
Maximum _ 13,0 C 13,9 C 11,7 C 97 % 1022,8 hPa 0,2 l/m 2 min 5 min 522 W/m 35,4 km/h
NO (5 Bft)
100,00 %
Durchschnitt _ 10,9 C 10,5 C 8,7 C 92 % 1017,7 hPa #3,2 l/m #22 min. #6:20 h 110 W/m 12,6 km/h (3 Bft) 96,99 %
© 2021 W. Hausmann